Time,TemperatureF,DewpointF,PressureIn,WindDirection,WindDirectionDegrees,WindSpeedMPH,WindSpeedGustMPH,Humidity,HourlyPrecipIn,Conditions,Clouds,dailyrainin,SolarRadiationWatts/m^2,SoftwareType,DateUTC
2013-05-21 00:00:00,65.1,63.6,29.79,SW,223,6.6,6.6,95,1.11,,,1.11,0.00,VWS V14.01,2013-05-21 05:00:00,
2013-05-21 00:01:00,65.1,63.6,29.80,SW,222,0.0,6.6,95,1.12,,,0.01,0.00,VWS V14.01,2013-05-21 05:01:00,
2013-05-21 00:03:00,65.1,63.6,29.79,SW,231,0.0,0.0,95,1.14,,,0.03,0.00,VWS V14.01,2013-05-21 05:03:00,
2013-05-21 00:04:00,65.1,63.6,29.79,SW,231,0.0,0.0,95,1.14,,,0.03,0.00,VWS V14.01,2013-05-21 05:04:00,
2013-05-21 00:07:00,65.1,63.6,29.79,West,273,4.4,5.5,95,1.16,,,0.05,0.00,VWS V14.01,2013-05-21 05:07:00,
2013-05-21 00:09:00,65.1,63.6,29.78,West,275,3.3,5.5,95,1.17,,,0.06,0.00,VWS V14.01,2013-05-21 05:09:00,
2013-05-21 00:12:00,65.1,63.6,29.77,WNW,296,3.3,4.4,95,1.18,,,0.07,0.00,VWS V14.01,2013-05-21 05:12:00,
2013-05-21 00:13:00,65.1,63.6,29.77,WNW,296,2.2,3.3,95,1.18,,,0.07,0.00,VWS V14.01,2013-05-21 05:13:00,
2013-05-21 00:14:00,65.1,63.6,29.77,WNW,285,2.2,5.5,95,1.19,,,0.08,0.00,VWS V14.01,2013-05-21 05:14:00,
2013-05-21 00:15:00,65.1,63.6,29.77,WNW,302,3.3,3.3,95,1.11,,,0.08,0.00,VWS V14.01,2013-05-21 05:15:00,
2013-05-21 00:17:00,65.0,63.5,29.77,NW,320,2.2,3.3,95,1.02,,,0.09,0.00,VWS V14.01,2013-05-21 05:17:00,
2013-05-21 00:18:00,65.0,63.5,29.77,NW,318,3.3,3.3,95,1.02,,,0.09,0.00,VWS V14.01,2013-05-21 05:18:00,
2013-05-21 00:19:00,64.9,63.4,29.77,WNW,285,2.2,4.4,95,0.94,,,0.09,0.00,VWS V14.01,2013-05-21 05:19:00,
2013-05-21 00:21:00,64.8,63.3,29.77,WNW,289,4.4,4.4,95,0.83,,,0.09,0.00,VWS V14.01,2013-05-21 05:21:00,
2013-05-21 00:23:00,64.6,63.1,29.77,WNW,283,3.3,3.3,95,0.74,,,0.09,0.00,VWS V14.01,2013-05-21 05:23:00,
2013-05-21 00:24:00,64.6,63.1,29.77,West,277,3.3,3.3,95,0.67,,,0.09,0.00,VWS V14.01,2013-05-21 05:24:00,
2013-05-21 00:25:00,64.5,63.0,29.77,West,275,3.3,4.4,95,0.58,,,0.09,0.00,VWS V14.01,2013-05-21 05:25:00,
2013-05-21 00:26:00,64.5,63.0,29.77,WNW,283,2.2,5.5,95,0.46,,,0.09,0.00,VWS V14.01,2013-05-21 05:26:00,
2013-05-21 00:27:00,64.5,63.0,29.77,WNW,283,5.5,5.5,95,0.47,,,0.10,0.00,VWS V14.01,2013-05-21 05:27:00,
2013-05-21 00:28:00,64.5,63.0,29.77,West,278,4.4,7.7,95,0.42,,,0.10,0.00,VWS V14.01,2013-05-21 05:28:00,
2013-05-21 00:29:00,64.5,63.0,29.78,WNW,297,5.5,6.6,95,0.40,,,0.10,0.00,VWS V14.01,2013-05-21 05:29:00,
2013-05-21 00:30:00,64.5,63.0,29.78,West,280,6.6,6.6,95,0.40,,,0.10,0.00,VWS V14.01,2013-05-21 05:30:00,
2013-05-21 00:32:00,64.4,62.9,29.77,West,280,6.6,6.6,95,0.36,,,0.11,0.00,VWS V14.01,2013-05-21 05:32:00,
2013-05-21 00:33:00,64.4,62.9,29.77,West,273,5.5,5.5,95,0.35,,,0.11,0.00,VWS V14.01,2013-05-21 05:33:00,
2013-05-21 00:34:00,64.4,62.9,29.78,WSW,254,6.6,7.7,95,0.35,,,0.11,0.00,VWS V14.01,2013-05-21 05:34:00,
2013-05-21 00:35:00,64.4,62.9,29.78,West,275,5.5,7.7,95,0.35,,,0.12,0.00,VWS V14.01,2013-05-21 05:35:00,
2013-05-21 00:37:00,64.4,62.9,29.77,WNW,291,5.5,7.7,95,0.31,,,0.13,0.00,VWS V14.01,2013-05-21 05:37:00,
2013-05-21 00:38:00,64.4,62.9,29.77,West,274,5.5,8.8,95,0.32,,,0.14,0.00,VWS V14.01,2013-05-21 05:38:00,
2013-05-21 00:39:00,64.4,62.9,29.77,WNW,291,5.5,5.5,95,0.31,,,0.14,0.00,VWS V14.01,2013-05-21 05:39:00,
2013-05-21 00:40:00,64.4,62.9,29.77,West,266,4.4,6.6,95,0.31,,,0.14,0.00,VWS V14.01,2013-05-21 05:40:00,
2013-05-21 00:41:00,64.4,62.9,29.77,WNW,282,5.5,5.5,95,0.31,,,0.14,0.00,VWS V14.01,2013-05-21 05:41:00,
2013-05-21 00:43:00,64.4,62.9,29.77,West,278,7.7,7.7,95,0.30,,,0.14,0.00,VWS V14.01,2013-05-21 05:43:00,
2013-05-21 00:46:00,64.5,63.0,29.77,WNW,285,5.5,5.5,95,0.26,,,0.15,0.00,VWS V14.01,2013-05-21 05:46:00,
2013-05-21 00:47:00,64.5,63.0,29.77,NW,306,13.2,13.2,95,0.26,,,0.16,0.00,VWS V14.01,2013-05-21 05:47:00,
2013-05-21 00:48:00,64.4,62.9,29.77,West,274,12.1,12.1,95,0.23,,,0.16,0.00,VWS V14.01,2013-05-21 05:48:00,
2013-05-21 00:50:00,64.4,62.9,29.77,West,265,8.8,13.2,95,0.23,,,0.17,0.00,VWS V14.01,2013-05-21 05:50:00,
2013-05-21 00:51:00,64.4,62.9,29.76,WNW,288,6.6,6.6,95,0.23,,,0.17,0.00,VWS V14.01,2013-05-21 05:51:00,
2013-05-21 00:52:00,64.3,62.8,29.76,West,274,7.7,11.0,95,0.22,,,0.17,0.00,VWS V14.01,2013-05-21 05:52:00,
2013-05-21 00:53:00,64.2,62.7,29.76,West,269,6.6,7.7,95,0.23,,,0.18,0.00,VWS V14.01,2013-05-21 05:53:00,
2013-05-21 00:54:00,64.2,62.7,29.76,WNW,287,8.8,12.1,95,0.22,,,0.18,0.00,VWS V14.01,2013-05-21 05:54:00,
2013-05-21 00:56:00,64.1,62.6,29.76,NW,305,9.9,9.9,95,0.21,,,0.18,0.00,VWS V14.01,2013-05-21 05:56:00,
2013-05-21 00:57:00,64.1,62.6,29.76,WNW,285,5.5,7.7,95,0.22,,,0.19,0.00,VWS V14.01,2013-05-21 05:57:00,
2013-05-21 00:58:00,64.1,62.6,29.76,WNW,299,5.5,7.7,95,0.21,,,0.19,0.00,VWS V14.01,2013-05-21 05:58:00,
2013-05-21 00:59:00,64.0,62.5,29.76,WNW,301,4.4,7.7,95,0.21,,,0.19,0.00,VWS V14.01,2013-05-21 05:59:00,
2013-05-21 01:02:00,64.0,62.5,29.76,WNW,294,5.5,7.7,95,0.19,,,0.20,0.00,VWS V14.01,2013-05-21 06:02:00,
2013-05-21 01:03:00,64.0,62.5,29.75,West,266,6.6,6.6,95,0.18,,,0.20,0.00,VWS V14.01,2013-05-21 06:03:00,
2013-05-21 01:04:00,63.9,62.4,29.75,WNW,290,6.6,6.6,95,0.17,,,0.20,0.00,VWS V14.01,2013-05-21 06:04:00,
2013-05-21 01:08:00,64.0,62.5,29.76,WNW,302,6.6,7.7,95,0.16,,,0.21,0.00,VWS V14.01,2013-05-21 06:08:00,
2013-05-21 01:09:00,64.0,62.5,29.76,West,273,3.3,8.8,95,0.16,,,0.22,0.00,VWS V14.01,2013-05-21 06:09:00,
2013-05-21 01:10:00,64.0,62.5,29.76,WNW,288,4.4,5.5,95,0.16,,,0.22,0.00,VWS V14.01,2013-05-21 06:10:00,
2013-05-21 01:11:00,64.0,62.5,29.75,NW,307,5.5,5.5,95,0.17,,,0.23,0.00,VWS V14.01,2013-05-21 06:11:00,
2013-05-21 01:13:00,64.0,62.5,29.75,West,271,0.0,6.6,95,0.16,,,0.23,0.00,VWS V14.01,2013-05-21 06:13:00,
2013-05-21 01:15:00,64.0,62.5,29.75,West,273,2.2,3.3,95,0.16,,,0.24,0.00,VWS V14.01,2013-05-21 06:15:00,
2013-05-21 01:16:00,64.0,62.5,29.75,West,273,1.1,1.1,95,0.16,,,0.24,0.00,VWS V14.01,2013-05-21 06:16:00,
2013-05-21 01:18:00,63.9,62.4,29.75,West,269,3.3,3.3,95,0.16,,,0.25,0.00,VWS V14.01,2013-05-21 06:18:00,
2013-05-21 01:19:00,64.0,62.5,29.75,West,267,3.3,5.5,95,0.16,,,0.25,0.00,VWS V14.01,2013-05-21 06:19:00,
2013-05-21 01:20:00,64.0,62.5,29.75,West,263,3.3,4.4,95,0.16,,,0.25,0.00,VWS V14.01,2013-05-21 06:20:00,
2013-05-21 01:22:00,64.0,62.5,29.74,West,271,2.2,5.5,95,0.17,,,0.26,0.00,VWS V14.01,2013-05-21 06:22:00,
2013-05-21 01:25:00,64.0,62.5,29.74,WSW,249,4.4,6.6,95,0.18,,,0.27,0.00,VWS V14.01,2013-05-21 06:25:00,
2013-05-21 01:26:00,64.0,62.5,29.74,WSW,237,4.4,6.6,95,0.18,,,0.27,0.00,VWS V14.01,2013-05-21 06:26:00,
2013-05-21 01:27:00,64.1,62.6,29.74,SW,220,4.4,4.4,95,0.18,,,0.27,0.00,VWS V14.01,2013-05-21 06:27:00,
2013-05-21 01:29:00,64.1,62.9,29.75,SSW,199,6.6,6.6,96,0.18,,,0.28,0.00,VWS V14.01,2013-05-21 06:29:00,
2013-05-21 01:30:00,64.1,62.9,29.76,South,184,6.6,6.6,96,0.18,,,0.28,0.00,VWS V14.01,2013-05-21 06:30:00,
2013-05-21 01:31:00,64.1,62.9,29.76,South,179,3.3,5.5,96,0.19,,,0.29,0.00,VWS V14.01,2013-05-21 06:31:00,
2013-05-21 01:32:00,64.1,62.9,29.76,SSE,162,4.4,5.5,96,0.18,,,0.29,0.00,VWS V14.01,2013-05-21 06:32:00,
2013-05-21 01:34:00,64.2,63.0,29.76,South,182,0.0,1.1,96,0.19,,,0.30,0.00,VWS V14.01,2013-05-21 06:34:00,
2013-05-21 01:35:00,64.2,63.0,29.76,SSW,206,0.0,2.2,96,0.20,,,0.31,0.00,VWS V14.01,2013-05-21 06:35:00,
2013-05-21 01:36:00,64.2,63.0,29.76,South,183,2.2,6.6,96,0.20,,,0.32,0.00,VWS V14.01,2013-05-21 06:36:00,
2013-05-21 01:37:00,64.1,62.9,29.75,South,183,0.0,1.1,96,0.20,,,0.32,0.00,VWS V14.01,2013-05-21 06:37:00,
2013-05-21 01:39:00,64.1,62.9,29.75,South,183,0.0,1.1,96,0.19,,,0.33,0.00,VWS V14.01,2013-05-21 06:39:00,
2013-05-21 01:40:00,64.1,62.9,29.75,SSW,206,2.2,3.3,96,0.19,,,0.33,0.00,VWS V14.01,2013-05-21 06:40:00,
2013-05-21 01:41:00,64.1,62.9,29.75,SSW,206,2.2,3.3,96,0.20,,,0.34,0.00,VWS V14.01,2013-05-21 06:41:00,
2013-05-21 01:42:00,64.1,62.9,29.75,SSW,206,2.2,2.2,96,0.20,,,0.34,0.00,VWS V14.01,2013-05-21 06:42:00,
2013-05-21 01:43:00,64.1,62.9,29.75,SSW,210,3.3,4.4,96,0.21,,,0.35,0.00,VWS V14.01,2013-05-21 06:43:00,
2013-05-21 01:44:00,64.1,62.9,29.75,SSW,210,3.3,3.3,96,0.20,,,0.35,0.00,VWS V14.01,2013-05-21 06:44:00,
2013-05-21 01:46:00,64.1,62.9,29.75,South,177,3.3,4.4,96,0.21,,,0.36,0.00,VWS V14.01,2013-05-21 06:46:00,
2013-05-21 01:47:00,64.1,62.9,29.75,SSE,161,1.1,1.1,96,0.20,,,0.36,0.00,VWS V14.01,2013-05-21 06:47:00,
2013-05-21 01:48:00,64.1,62.9,29.75,SSE,158,2.2,3.3,96,0.21,,,0.37,0.00,VWS V14.01,2013-05-21 06:48:00,
2013-05-21 01:49:00,64.1,62.9,29.75,South,172,3.3,6.6,96,0.21,,,0.37,0.00,VWS V14.01,2013-05-21 06:49:00,
2013-05-21 01:51:00,64.1,62.9,29.75,South,191,6.6,6.6,96,0.20,,,0.37,0.00,VWS V14.01,2013-05-21 06:51:00,
2013-05-21 01:52:00,64.1,62.9,29.75,SSW,197,2.2,3.3,96,0.20,,,0.37,0.00,VWS V14.01,2013-05-21 06:52:00,
2013-05-21 01:53:00,64.1,62.9,29.75,SSW,196,5.5,5.5,96,0.20,,,0.37,0.00,VWS V14.01,2013-05-21 06:53:00,
2013-05-21 01:54:00,64.1,62.9,29.75,South,176,3.3,5.5,96,0.20,,,0.38,0.00,VWS V14.01,2013-05-21 06:54:00,
2013-05-21 01:55:00,64.1,62.9,29.75,SSW,197,3.3,6.6,96,0.20,,,0.38,0.00,VWS V14.01,2013-05-21 06:55:00,
2013-05-21 01:56:00,64.1,62.9,29.75,SSE,164,2.2,5.5,96,0.20,,,0.38,0.00,VWS V14.01,2013-05-21 06:56:00,
2013-05-21 01:57:00,64.1,62.9,29.74,SSW,202,3.3,4.4,96,0.19,,,0.38,0.00,VWS V14.01,2013-05-21 06:57:00,
2013-05-21 01:58:00,64.1,62.9,29.74,SSW,204,3.3,4.4,96,0.19,,,0.38,0.00,VWS V14.01,2013-05-21 06:58:00,
2013-05-21 01:59:00,64.1,62.9,29.74,SSW,201,1.1,3.3,96,0.19,,,0.38,0.00,VWS V14.01,2013-05-21 06:59:00,
2013-05-21 02:01:00,64.1,62.9,29.74,SSE,155,8.8,8.8,96,0.20,,,0.39,0.00,VWS V14.01,2013-05-21 07:01:00,
2013-05-21 02:03:00,64.1,62.9,29.73,South,171,5.5,5.5,96,0.19,,,0.39,0.00,VWS V14.01,2013-05-21 07:03:00,
2013-05-21 02:04:00,64.1,62.9,29.72,SSE,153,1.1,3.3,96,0.19,,,0.39,0.00,VWS V14.01,2013-05-21 07:04:00,
2013-05-21 02:07:00,64.0,62.8,29.72,South,177,4.4,4.4,96,0.18,,,0.39,0.00,VWS V14.01,2013-05-21 07:07:00,
2013-05-21 02:08:00,64.0,62.8,29.72,South,181,4.4,5.5,96,0.18,,,0.39,0.00,VWS V14.01,2013-05-21 07:08:00,
2013-05-21 02:09:00,64.0,62.8,29.71,South,171,3.3,6.6,96,0.18,,,0.39,0.00,VWS V14.01,2013-05-21 07:09:00,
2013-05-21 02:12:00,64.0,62.8,29.72,SSE,166,5.5,7.7,96,0.17,,,0.40,0.00,VWS V14.01,2013-05-21 07:12:00,
2013-05-21 02:13:00,64.0,62.8,29.72,SSW,192,5.5,7.7,96,0.17,,,0.40,0.00,VWS V14.01,2013-05-21 07:13:00,
2013-05-21 02:14:00,64.0,62.8,29.72,South,181,4.4,4.4,96,0.17,,,0.40,0.00,VWS V14.01,2013-05-21 07:14:00,
2013-05-21 02:19:00,64.0,62.8,29.71,South,174,6.6,9.9,96,0.15,,,0.40,0.00,VWS V14.01,2013-05-21 07:19:00,
2013-05-21 02:20:00,63.9,62.7,29.71,SSE,158,5.5,11.0,96,0.15,,,0.40,0.00,VWS V14.01,2013-05-21 07:20:00,
2013-05-21 02:24:00,63.9,62.7,29.70,SSE,152,5.5,12.1,96,0.14,,,0.40,0.00,VWS V14.01,2013-05-21 07:24:00,
2013-05-21 02:25:00,63.8,62.6,29.70,SSE,152,4.4,9.9,96,0.13,,,0.40,0.00,VWS V14.01,2013-05-21 07:25:00,
2013-05-21 02:30:00,63.8,62.6,29.69,SE,133,5.5,8.8,96,0.12,,,0.40,0.00,VWS V14.01,2013-05-21 07:30:00,
2013-05-21 02:31:00,63.8,62.6,29.69,SE,140,11.0,12.1,96,0.11,,,0.40,0.00,VWS V14.01,2013-05-21 07:31:00,
2013-05-21 02:35:00,63.8,62.6,29.66,East,96,5.5,6.6,96,0.09,,,0.40,0.00,VWS V14.01,2013-05-21 07:35:00,
2013-05-21 02:36:00,63.8,62.6,29.66,SE,144,3.3,6.6,96,0.09,,,0.40,0.00,VWS V14.01,2013-05-21 07:36:00,
2013-05-21 02:37:00,63.8,62.6,29.66,SSE,159,4.4,5.5,96,0.08,,,0.40,0.00,VWS V14.01,2013-05-21 07:37:00,
2013-05-21 02:40:00,63.8,62.6,29.67,SSE,168,6.6,6.6,96,0.06,,,0.40,0.00,VWS V14.01,2013-05-21 07:40:00,
2013-05-21 02:41:00,63.8,62.6,29.67,South,190,6.6,6.6,96,0.06,,,0.40,0.00,VWS V14.01,2013-05-21 07:41:00,
2013-05-21 02:43:00,63.8,62.6,29.68,South,180,7.7,9.9,96,0.05,,,0.40,0.00,VWS V14.01,2013-05-21 07:43:00,
2013-05-21 02:44:00,63.8,62.6,29.68,South,170,4.4,6.6,96,0.05,,,0.40,0.00,VWS V14.01,2013-05-21 07:44:00,
2013-05-21 02:46:00,63.8,62.6,29.68,SSE,157,6.6,6.6,96,0.04,,,0.40,0.00,VWS V14.01,2013-05-21 07:46:00,
2013-05-21 02:47:00,63.8,62.6,29.68,SSW,206,5.5,6.6,96,0.04,,,0.40,0.00,VWS V14.01,2013-05-21 07:47:00,
2013-05-21 02:48:00,63.8,62.6,29.68,SSE,155,4.4,6.6,96,0.04,,,0.40,0.00,VWS V14.01,2013-05-21 07:48:00,
2013-05-21 02:49:00,63.8,62.6,29.68,SSE,147,4.4,5.5,96,0.03,,,0.40,0.00,VWS V14.01,2013-05-21 07:49:00,
2013-05-21 02:51:00,63.7,62.5,29.68,South,183,4.4,5.5,96,0.03,,,0.40,0.00,VWS V14.01,2013-05-21 07:51:00,
2013-05-21 02:53:00,63.7,62.5,29.68,South,183,4.4,5.5,96,0.03,,,0.40,0.00,VWS V14.01,2013-05-21 07:53:00,
2013-05-21 02:54:00,63.7,62.5,29.69,South,174,6.6,8.8,96,0.02,,,0.40,0.00,VWS V14.01,2013-05-21 07:54:00,
2013-05-21 02:55:00,63.7,62.5,29.69,South,181,1.1,7.7,96,0.02,,,0.40,0.00,VWS V14.01,2013-05-21 07:55:00,
2013-05-21 02:56:00,63.7,62.5,29.69,South,170,4.4,6.6,96,0.02,,,0.40,0.00,VWS V14.01,2013-05-21 07:56:00,
2013-05-21 02:58:00,63.7,62.5,29.69,SSE,168,7.7,7.7,96,0.02,,,0.40,0.00,VWS V14.01,2013-05-21 07:58:00,
2013-05-21 02:59:00,63.7,62.5,29.69,SSE,151,3.3,7.7,96,0.02,,,0.40,0.00,VWS V14.01,2013-05-21 07:59:00,
2013-05-21 03:00:00,63.7,62.5,29.68,East,96,3.3,6.6,96,0.02,,,0.40,0.00,VWS V14.01,2013-05-21 08:00:00,
2013-05-21 03:01:00,63.7,62.5,29.68,SSE,164,4.4,5.5,96,0.02,,,0.40,0.00,VWS V14.01,2013-05-21 08:01:00,
2013-05-21 03:03:00,63.7,62.5,29.69,South,173,4.4,6.6,96,0.01,,,0.40,0.00,VWS V14.01,2013-05-21 08:03:00,
2013-05-21 03:04:00,63.7,62.5,29.69,South,180,5.5,6.6,96,0.01,,,0.40,0.00,VWS V14.01,2013-05-21 08:04:00,
2013-05-21 03:05:00,63.7,62.5,29.70,SE,145,8.8,9.9,96,0.01,,,0.40,0.00,VWS V14.01,2013-05-21 08:05:00,
2013-05-21 03:07:00,63.7,62.5,29.70,South,179,4.4,7.7,96,0.01,,,0.40,0.00,VWS V14.01,2013-05-21 08:07:00,
2013-05-21 03:09:00,63.7,62.5,29.70,South,183,5.5,6.6,96,0.01,,,0.40,0.00,VWS V14.01,2013-05-21 08:09:00,
2013-05-21 03:10:00,63.7,62.5,29.70,South,172,4.4,4.4,96,0.01,,,0.40,0.00,VWS V14.01,2013-05-21 08:10:00,
2013-05-21 03:11:00,63.7,62.5,29.70,South,172,3.3,4.4,96,0.01,,,0.40,0.00,VWS V14.01,2013-05-21 08:11:00,
2013-05-21 03:12:00,63.7,62.5,29.70,SSE,153,6.6,7.7,96,0.00,,,0.40,0.00,VWS V14.01,2013-05-21 08:12:00,
2013-05-21 03:14:00,63.7,62.5,29.70,SSE,165,2.2,3.3,96,0.00,,,0.40,0.00,VWS V14.01,2013-05-21 08:14:00,
2013-05-21 03:15:00,63.6,62.4,29.70,SSW,204,1.1,6.6,96,0.00,,,0.40,0.00,VWS V14.01,2013-05-21 08:15:00,
2013-05-21 03:17:00,63.6,62.4,29.70,SW,233,0.0,0.0,96,0.00,,,0.40,0.00,VWS V14.01,2013-05-21 08:17:00,
2013-05-21 03:19:00,63.6,62.4,29.70,South,191,3.3,5.5,96,0.00,,,0.40,0.00,VWS V14.01,2013-05-21 08:19:00,
2013-05-21 03:21:00,63.6,62.4,29.70,SSE,155,0.0,3.3,96,0.00,,,0.40,0.00,VWS V14.01,2013-05-21 08:21:00,
2013-05-21 03:22:00,63.6,62.4,29.70,SSE,156,1.1,1.1,96,0.00,,,0.40,0.00,VWS V14.01,2013-05-21 08:22:00,
2013-05-21 03:24:00,63.5,62.3,29.71,SSW,201,3.3,4.4,96,0.00,,,0.40,0.00,VWS V14.01,2013-05-21 08:24:00,
2013-05-21 03:25:00,63.5,62.3,29.71,SSW,201,3.3,7.7,96,0.00,,,0.40,0.00,VWS V14.01,2013-05-21 08:25:00,
2013-05-21 03:26:00,63.5,62.3,29.71,SW,214,3.3,3.3,96,0.00,,,0.40,0.00,VWS V14.01,2013-05-21 08:26:00,
2013-05-21 03:28:00,63.5,62.3,29.71,South,184,5.5,5.5,96,0.00,,,0.40,0.00,VWS V14.01,2013-05-21 08:28:00,
2013-05-21 03:30:00,63.4,62.2,29.71,South,182,1.1,7.7,96,0.00,,,0.40,0.00,VWS V14.01,2013-05-21 08:30:00,
2013-05-21 03:32:00,63.4,62.2,29.71,South,182,4.4,4.4,96,0.00,,,0.40,0.00,VWS V14.01,2013-05-21 08:32:00,
2013-05-21 03:33:00,63.3,62.1,29.72,SSE,152,1.1,5.5,96,0.00,,,0.40,0.00,VWS V14.01,2013-05-21 08:33:00,
2013-05-21 03:35:00,63.2,62.0,29.72,SSE,156,3.3,3.3,96,0.00,,,0.40,0.00,VWS V14.01,2013-05-21 08:35:00,
2013-05-21 03:37:00,63.2,62.0,29.71,SSE,152,2.2,4.4,96,0.00,,,0.40,0.00,VWS V14.01,2013-05-21 08:37:00,
2013-05-21 03:38:00,63.2,62.0,29.71,SSE,149,4.4,6.6,96,0.00,,,0.40,0.00,VWS V14.01,2013-05-21 08:38:00,
2013-05-21 03:39:00,63.2,62.0,29.72,SSE,150,5.5,5.5,96,0.00,,,0.40,0.00,VWS V14.01,2013-05-21 08:39:00,
2013-05-21 03:41:00,63.1,61.9,29.72,SSE,158,3.3,3.3,96,0.00,,,0.40,0.00,VWS V14.01,2013-05-21 08:41:00,
2013-05-21 03:43:00,63.1,61.9,29.72,SSE,152,2.2,6.6,96,0.00,,,0.40,0.00,VWS V14.01,2013-05-21 08:43:00,
2013-05-21 03:44:00,63.1,61.9,29.72,SSE,155,3.3,6.6,96,0.00,,,0.40,0.00,VWS V14.01,2013-05-21 08:44:00,
2013-05-21 03:46:00,63.1,61.9,29.72,South,174,4.4,6.6,96,0.00,,,0.40,0.00,VWS V14.01,2013-05-21 08:46:00,
2013-05-21 03:48:00,63.1,61.9,29.72,SE,141,2.2,5.5,96,0.00,,,0.40,0.00,VWS V14.01,2013-05-21 08:48:00,
2013-05-21 03:49:00,63.0,61.8,29.71,SE,135,8.8,8.8,96,0.00,,,0.40,0.00,VWS V14.01,2013-05-21 08:49:00,
2013-05-21 03:50:00,63.0,61.8,29.72,SE,142,7.7,8.8,96,0.00,,,0.40,0.00,VWS V14.01,2013-05-21 08:50:00,
2013-05-21 03:52:00,63.0,61.8,29.72,South,187,4.4,6.6,96,0.00,,,0.40,0.00,VWS V14.01,2013-05-21 08:52:00,
2013-05-21 03:53:00,62.9,61.8,29.71,SSE,148,2.2,2.2,96,0.00,,,0.40,0.00,VWS V14.01,2013-05-21 08:53:00,
2013-05-21 03:55:00,62.9,61.8,29.71,SE,131,7.7,9.9,96,0.00,,,0.40,0.00,VWS V14.01,2013-05-21 08:55:00,
2013-05-21 03:56:00,62.9,61.8,29.72,SSW,197,4.4,4.4,96,0.00,,,0.40,0.00,VWS V14.01,2013-05-21 08:56:00,
2013-05-21 03:58:00,62.9,61.8,29.72,South,186,3.3,5.5,96,0.00,,,0.40,0.00,VWS V14.01,2013-05-21 08:58:00,
2013-05-21 04:00:00,62.8,61.7,29.72,SSE,168,5.5,6.6,96,0.00,,,0.40,0.00,VWS V14.01,2013-05-21 09:00:00,
2013-05-21 04:02:00,62.7,61.5,29.72,South,170,6.6,7.7,96,0.00,,,0.40,0.00,VWS V14.01,2013-05-21 09:02:00,
2013-05-21 04:03:00,62.7,61.5,29.72,South,179,5.5,6.6,96,0.00,,,0.40,0.00,VWS V14.01,2013-05-21 09:03:00,
2013-05-21 04:05:00,62.7,61.5,29.72,South,178,1.1,3.3,96,0.00,,,0.40,0.00,VWS V14.01,2013-05-21 09:05:00,
2013-05-21 04:07:00,62.7,61.5,29.72,South,184,2.2,6.6,96,0.00,,,0.40,0.00,VWS V14.01,2013-05-21 09:07:00,
2013-05-21 04:08:00,62.6,61.5,29.72,South,182,4.4,4.4,96,0.00,,,0.40,0.00,VWS V14.01,2013-05-21 09:08:00,
2013-05-21 04:09:00,62.6,61.5,29.72,South,169,3.3,5.5,96,0.00,,,0.40,0.00,VWS V14.01,2013-05-21 09:09:00,
2013-05-21 04:11:00,62.5,61.3,29.72,SSE,164,2.2,5.5,96,0.00,,,0.40,0.00,VWS V14.01,2013-05-21 09:11:00,
2013-05-21 04:13:00,62.5,61.3,29.71,SSE,160,2.2,2.2,96,0.00,,,0.40,0.00,VWS V14.01,2013-05-21 09:13:00,
2013-05-21 04:15:00,62.5,61.3,29.71,SSE,147,0.0,3.3,96,0.00,,,0.40,0.00,VWS V14.01,2013-05-21 09:15:00,
2013-05-21 04:17:00,62.4,61.2,29.72,SSE,149,2.2,2.2,96,0.00,,,0.40,0.00,VWS V14.01,2013-05-21 09:17:00,
2013-05-21 04:19:00,62.3,61.2,29.71,SSE,152,2.2,2.2,96,0.00,,,0.40,0.00,VWS V14.01,2013-05-21 09:19:00,
2013-05-21 04:20:00,62.3,61.2,29.71,SSE,153,2.2,4.4,96,0.00,,,0.40,0.00,VWS V14.01,2013-05-21 09:20:00,
2013-05-21 04:22:00,62.3,61.2,29.71,SSE,153,2.2,2.2,96,0.00,,,0.40,0.00,VWS V14.01,2013-05-21 09:22:00,
2013-05-21 04:24:00,62.2,61.0,29.71,SSE,154,2.2,2.2,96,0.00,,,0.40,0.00,VWS V14.01,2013-05-21 09:24:00,
2013-05-21 04:25:00,62.2,61.0,29.71,South,180,5.5,5.5,96,0.00,,,0.40,0.00,VWS V14.01,2013-05-21 09:25:00,
2013-05-21 04:26:00,62.2,61.0,29.71,South,181,5.5,5.5,96,0.00,,,0.40,0.00,VWS V14.01,2013-05-21 09:26:00,
2013-05-21 04:27:00,62.1,61.0,29.71,South,185,0.0,5.5,96,0.00,,,0.40,0.00,VWS V14.01,2013-05-21 09:27:00,
2013-05-21 04:29:00,62.1,61.0,29.72,South,181,1.1,4.4,96,0.00,,,0.40,0.00,VWS V14.01,2013-05-21 09:29:00,
2013-05-21 04:30:00,62.2,61.0,29.72,South,181,3.3,3.3,96,0.00,,,0.40,0.00,VWS V14.01,2013-05-21 09:30:00,
2013-05-21 04:31:00,62.1,61.0,29.72,South,181,0.0,1.1,96,0.00,,,0.40,0.00,VWS V14.01,2013-05-21 09:31:00,
2013-05-21 04:32:00,62.1,61.0,29.72,South,181,1.1,2.2,96,0.00,,,0.40,0.00,VWS V14.01,2013-05-21 09:32:00,
2013-05-21 04:35:00,62.1,61.0,29.72,South,183,3.3,3.3,96,0.00,,,0.40,0.00,VWS V14.01,2013-05-21 09:35:00,
2013-05-21 04:36:00,62.1,61.0,29.72,South,183,0.0,2.2,96,0.00,,,0.40,0.00,VWS V14.01,2013-05-21 09:36:00,
2013-05-21 04:37:00,62.1,61.0,29.72,South,183,1.1,1.1,96,0.00,,,0.40,0.00,VWS V14.01,2013-05-21 09:37:00,
2013-05-21 04:38:00,62.1,61.0,29.72,South,183,3.3,3.3,96,0.00,,,0.40,0.00,VWS V14.01,2013-05-21 09:38:00,
2013-05-21 04:40:00,62.0,60.8,29.72,South,183,2.2,3.3,96,0.00,,,0.40,0.00,VWS V14.01,2013-05-21 09:40:00,
2013-05-21 04:41:00,62.0,60.8,29.72,South,174,3.3,3.3,96,0.00,,,0.40,0.00,VWS V14.01,2013-05-21 09:41:00,
2013-05-21 04:42:00,62.0,60.8,29.72,South,172,3.3,3.3,96,0.00,,,0.40,0.00,VWS V14.01,2013-05-21 09:42:00,
2013-05-21 04:43:00,62.0,60.8,29.72,South,172,2.2,3.3,96,0.00,,,0.40,0.00,VWS V14.01,2013-05-21 09:43:00,
2013-05-21 04:45:00,62.0,60.8,29.71,SSE,156,3.3,4.4,96,0.00,,,0.40,0.00,VWS V14.01,2013-05-21 09:45:00,
2013-05-21 04:46:00,61.9,60.8,29.72,SSE,158,1.1,4.4,96,0.00,,,0.40,0.00,VWS V14.01,2013-05-21 09:46:00,
2013-05-21 04:47:00,61.9,60.8,29.71,SSE,158,3.3,3.3,96,0.00,,,0.40,0.00,VWS V14.01,2013-05-21 09:47:00,
2013-05-21 04:48:00,61.9,60.8,29.71,SSE,155,2.2,3.3,96,0.00,,,0.40,0.00,VWS V14.01,2013-05-21 09:48:00,
2013-05-21 04:50:00,61.9,60.8,29.72,SSE,158,3.3,4.4,96,0.00,,,0.40,0.00,VWS V14.01,2013-05-21 09:50:00,
2013-05-21 04:51:00,61.9,60.8,29.72,SSE,158,2.2,2.2,96,0.00,,,0.40,0.00,VWS V14.01,2013-05-21 09:51:00,
2013-05-21 04:52:00,61.9,60.8,29.72,SE,139,3.3,5.5,96,0.00,,,0.40,0.00,VWS V14.01,2013-05-21 09:52:00,
2013-05-21 04:53:00,61.9,60.8,29.72,SE,141,0.0,0.0,96,0.00,,,0.40,0.00,VWS V14.01,2013-05-21 09:53:00,
2013-05-21 04:54:00,61.9,60.8,29.72,SSE,147,5.5,5.5,96,0.00,,,0.40,0.00,VWS V14.01,2013-05-21 09:54:00,
2013-05-21 04:56:00,61.9,60.8,29.72,SSE,148,2.2,2.2,96,0.00,,,0.40,0.00,VWS V14.01,2013-05-21 09:56:00,
2013-05-21 04:57:00,61.9,60.8,29.72,SSE,148,3.3,3.3,96,0.00,,,0.40,0.00,VWS V14.01,2013-05-21 09:57:00,
2013-05-21 04:59:00,61.8,60.7,29.72,SSE,149,2.2,3.3,96,0.00,,,0.40,0.00,VWS V14.01,2013-05-21 09:59:00,
2013-05-21 05:00:00,61.8,60.7,29.72,SSE,150,3.3,3.3,96,0.00,,,0.40,0.00,VWS V14.01,2013-05-21 10:00:00,
2013-05-21 05:01:00,61.8,60.7,29.72,SSE,150,0.0,2.2,96,0.00,,,0.40,0.00,VWS V14.01,2013-05-21 10:01:00,
2013-05-21 05:03:00,61.9,60.8,29.72,SSE,151,3.3,3.3,96,0.00,,,0.40,0.00,VWS V14.01,2013-05-21 10:03:00,
2013-05-21 05:04:00,61.9,60.8,29.72,South,186,2.2,3.3,96,0.00,,,0.40,0.00,VWS V14.01,2013-05-21 10:04:00,
2013-05-21 05:05:00,61.9,60.8,29.72,South,186,2.2,2.2,96,0.00,,,0.40,0.00,VWS V14.01,2013-05-21 10:05:00,
2013-05-21 05:06:00,61.9,60.8,29.72,South,172,5.5,6.6,96,0.00,,,0.40,0.00,VWS V14.01,2013-05-21 10:06:00,
2013-05-21 05:07:00,61.8,60.7,29.72,SSE,164,3.3,6.6,96,0.00,,,0.40,0.00,VWS V14.01,2013-05-21 10:07:00,
2013-05-21 05:09:00,61.9,60.8,29.72,SSW,205,2.2,5.5,96,0.00,,,0.40,0.00,VWS V14.01,2013-05-21 10:09:00,
2013-05-21 05:10:00,61.9,60.8,29.72,South,182,2.2,4.4,96,0.00,,,0.40,0.00,VWS V14.01,2013-05-21 10:10:00,
2013-05-21 05:12:00,61.8,60.7,29.72,SSW,200,6.6,6.6,96,0.00,,,0.40,0.00,VWS V14.01,2013-05-21 10:12:00,
2013-05-21 05:14:00,61.8,60.7,29.72,South,177,2.2,4.4,96,0.00,,,0.40,0.00,VWS V14.01,2013-05-21 10:14:00,
2013-05-21 05:16:00,61.8,60.7,29.72,SSE,163,1.1,4.4,96,0.00,,,0.40,0.00,VWS V14.01,2013-05-21 10:16:00,
2013-05-21 05:18:00,61.8,60.7,29.72,South,170,2.2,2.2,96,0.00,,,0.40,0.00,VWS V14.01,2013-05-21 10:18:00,
2013-05-21 05:20:00,61.7,60.5,29.72,SSE,166,3.3,5.5,96,0.00,,,0.40,0.00,VWS V14.01,2013-05-21 10:20:00,
2013-05-21 05:21:00,61.7,60.5,29.72,South,169,2.2,3.3,96,0.00,,,0.40,0.00,VWS V14.01,2013-05-21 10:21:00,
2013-05-21 05:23:00,61.7,60.5,29.72,South,169,0.0,3.3,96,0.00,,,0.40,0.00,VWS V14.01,2013-05-21 10:23:00,
2013-05-21 05:24:00,61.7,60.5,29.72,South,188,5.5,5.5,96,0.00,,,0.40,0.00,VWS V14.01,2013-05-21 10:24:00,
2013-05-21 05:25:00,61.7,60.5,29.72,SSE,168,3.3,5.5,96,0.00,,,0.40,0.00,VWS V14.01,2013-05-21 10:25:00,
2013-05-21 05:26:00,61.7,60.5,29.72,South,183,3.3,4.4,96,0.00,,,0.40,0.00,VWS V14.01,2013-05-21 10:26:00,
2013-05-21 05:28:00,61.7,60.5,29.72,South,177,0.0,3.3,96,0.00,,,0.40,0.00,VWS V14.01,2013-05-21 10:28:00,
2013-05-21 05:29:00,61.7,60.5,29.72,South,174,8.8,8.8,96,0.00,,,0.40,5.00,VWS V14.01,2013-05-21 10:29:00,
2013-05-21 05:30:00,61.7,60.8,29.72,South,175,3.3,7.7,97,0.00,,,0.40,7.00,VWS V14.01,2013-05-21 10:30:00,
2013-05-21 05:31:00,61.7,60.8,29.72,South,186,7.7,7.7,97,0.00,,,0.40,7.00,VWS V14.01,2013-05-21 10:31:00,
2013-05-21 05:33:00,61.7,60.8,29.73,SSE,158,2.2,13.2,97,0.00,,,0.40,11.00,VWS V14.01,2013-05-21 10:33:00,
2013-05-21 05:35:00,61.7,60.8,29.73,South,181,6.6,7.7,97,0.00,,,0.40,14.00,VWS V14.01,2013-05-21 10:35:00,
2013-05-21 05:36:00,61.7,60.8,29.73,South,188,3.3,6.6,97,0.00,,,0.40,16.00,VWS V14.01,2013-05-21 10:36:00,
2013-05-21 05:37:00,61.8,60.9,29.73,SSE,160,7.7,7.7,97,0.00,,,0.40,18.00,VWS V14.01,2013-05-21 10:37:00,
2013-05-21 05:38:00,61.8,60.9,29.73,SSW,196,3.3,6.6,97,0.00,,,0.40,21.00,VWS V14.01,2013-05-21 10:38:00,
2013-05-21 05:40:00,61.8,60.9,29.73,SSE,166,6.6,6.6,97,0.00,,,0.40,23.00,VWS V14.01,2013-05-21 10:40:00,
2013-05-21 05:42:00,61.8,60.9,29.73,SSE,151,2.2,11.0,97,0.00,,,0.40,25.00,VWS V14.01,2013-05-21 10:42:00,
2013-05-21 05:43:00,61.8,60.9,29.73,SSE,162,3.3,5.5,97,0.00,,,0.40,26.00,VWS V14.01,2013-05-21 10:43:00,
2013-05-21 05:44:00,61.8,60.9,29.73,SSE,162,3.3,3.3,97,0.00,,,0.40,26.00,VWS V14.01,2013-05-21 10:44:00,
2013-05-21 05:46:00,61.9,61.0,29.73,South,170,2.2,6.6,97,0.00,,,0.40,28.00,VWS V14.01,2013-05-21 10:46:00,
2013-05-21 05:48:00,61.9,61.0,29.73,SSW,207,7.7,9.9,97,0.00,,,0.40,28.00,VWS V14.01,2013-05-21 10:48:00,
2013-05-21 05:49:00,61.9,61.0,29.73,SSE,154,8.8,8.8,97,0.00,,,0.40,28.00,VWS V14.01,2013-05-21 10:49:00,
2013-05-21 05:52:00,62.0,61.1,29.73,SSE,159,6.6,6.6,97,0.00,,,0.40,30.00,VWS V14.01,2013-05-21 10:52:00,
2013-05-21 05:53:00,62.0,61.1,29.73,South,172,3.3,7.7,97,0.00,,,0.40,30.00,VWS V14.01,2013-05-21 10:53:00,
2013-05-21 05:54:00,62.0,61.1,29.73,SSE,164,6.6,6.6,97,0.00,,,0.40,32.00,VWS V14.01,2013-05-21 10:54:00,
2013-05-21 05:55:00,62.0,61.1,29.73,South,174,6.6,6.6,97,0.00,,,0.40,32.00,VWS V14.01,2013-05-21 10:55:00,
2013-05-21 05:58:00,62.0,61.1,29.73,SE,138,2.2,6.6,97,0.00,,,0.40,33.00,VWS V14.01,2013-05-21 10:58:00,
2013-05-21 05:59:00,62.1,61.0,29.73,SSW,197,6.6,6.6,96,0.00,,,0.40,35.00,VWS V14.01,2013-05-21 10:59:00,
2013-05-21 06:00:00,62.1,61.0,29.73,SSW,194,5.5,6.6,96,0.00,,,0.40,33.00,VWS V14.01,2013-05-21 11:00:00,
2013-05-21 06:01:00,62.1,61.0,29.73,SSW,195,6.6,6.6,96,0.00,,,0.40,32.00,VWS V14.01,2013-05-21 11:01:00,
2013-05-21 06:03:00,62.1,61.0,29.73,South,174,5.5,7.7,96,0.00,,,0.40,28.00,VWS V14.01,2013-05-21 11:03:00,
2013-05-21 06:05:00,62.2,61.0,29.73,SSE,168,4.4,5.5,96,0.00,,,0.40,28.00,VWS V14.01,2013-05-21 11:05:00,
2013-05-21 06:06:00,62.1,61.0,29.73,South,187,6.6,7.7,96,0.00,,,0.40,28.00,VWS V14.01,2013-05-21 11:06:00,
2013-05-21 06:07:00,62.2,61.0,29.73,SSW,204,7.7,9.9,96,0.00,,,0.40,28.00,VWS V14.01,2013-05-21 11:07:00,
2013-05-21 06:08:00,62.2,61.0,29.73,South,185,6.6,9.9,96,0.00,,,0.40,30.00,VWS V14.01,2013-05-21 11:08:00,
2013-05-21 06:10:00,62.2,61.0,29.73,South,169,4.4,6.6,96,0.00,,,0.40,32.00,VWS V14.01,2013-05-21 11:10:00,
2013-05-21 06:12:00,62.2,61.0,29.73,South,177,5.5,5.5,96,0.00,,,0.40,35.00,VWS V14.01,2013-05-21 11:12:00,
2013-05-21 06:13:00,62.2,61.0,29.73,SSW,208,6.6,6.6,96,0.00,,,0.40,37.00,VWS V14.01,2013-05-21 11:13:00,
2013-05-21 06:14:00,62.2,61.0,29.73,SSW,193,8.8,8.8,96,0.00,,,0.40,37.00,VWS V14.01,2013-05-21 11:14:00,
2013-05-21 06:16:00,62.2,61.0,29.73,SSW,200,4.4,7.7,96,0.00,,,0.40,40.00,VWS V14.01,2013-05-21 11:16:00,
2013-05-21 06:17:00,62.3,61.2,29.73,SSE,154,5.5,5.5,96,0.00,,,0.40,42.00,VWS V14.01,2013-05-21 11:17:00,
2013-05-21 06:18:00,62.3,61.2,29.73,South,183,5.5,8.8,96,0.00,,,0.40,42.00,VWS V14.01,2013-05-21 11:18:00,
2013-05-21 06:19:00,62.3,61.2,29.73,South,174,3.3,6.6,96,0.00,,,0.40,44.00,VWS V14.01,2013-05-21 11:19:00,
2013-05-21 06:21:00,62.3,61.2,29.73,SSW,195,6.6,7.7,96,0.00,,,0.40,51.00,VWS V14.01,2013-05-21 11:21:00,
2013-05-21 06:23:00,62.4,61.2,29.73,SSE,162,5.5,8.8,96,0.00,,,0.40,49.00,VWS V14.01,2013-05-21 11:23:00,
2013-05-21 06:24:00,62.4,61.2,29.73,SE,143,3.3,7.7,96,0.00,,,0.40,51.00,VWS V14.01,2013-05-21 11:24:00,
2013-05-21 06:25:00,62.4,61.2,29.72,SSE,161,5.5,7.7,96,0.00,,,0.40,53.00,VWS V14.01,2013-05-21 11:25:00,
2013-05-21 06:26:00,62.5,61.3,29.72,SSW,196,7.7,8.8,96,0.00,,,0.40,54.00,VWS V14.01,2013-05-21 11:26:00,
2013-05-21 06:29:00,62.5,61.3,29.73,SSE,156,3.3,7.7,96,0.00,,,0.40,56.00,VWS V14.01,2013-05-21 11:29:00,
2013-05-21 06:30:00,62.5,61.3,29.72,South,177,6.6,7.7,96,0.00,,,0.40,58.00,VWS V14.01,2013-05-21 11:30:00,
2013-05-21 06:34:00,62.6,61.5,29.72,SSW,209,7.7,8.8,96,0.00,,,0.40,67.00,VWS V14.01,2013-05-21 11:34:00,
2013-05-21 06:36:00,62.6,61.5,29.72,South,188,9.9,9.9,96,0.00,,,0.40,67.00,VWS V14.01,2013-05-21 11:36:00,
2013-05-21 06:39:00,62.7,61.5,29.72,SSW,199,6.6,12.1,96,0.00,,,0.40,114.00,VWS V14.01,2013-05-21 11:39:00,
2013-05-21 06:41:00,62.8,61.7,29.72,SSE,153,3.3,6.6,96,0.00,,,0.40,144.00,VWS V14.01,2013-05-21 11:41:00,
2013-05-21 06:42:00,62.9,61.8,29.72,SSE,160,1.1,6.6,96,0.00,,,0.40,149.00,VWS V14.01,2013-05-21 11:42:00,
2013-05-21 06:44:00,63.0,61.8,29.72,South,173,6.6,8.8,96,0.00,,,0.40,158.00,VWS V14.01,2013-05-21 11:44:00,
2013-05-21 06:47:00,63.2,62.0,29.71,South,170,5.5,5.5,96,0.00,,,0.40,185.00,VWS V14.01,2013-05-21 11:47:00,
2013-05-21 06:48:00,63.3,62.1,29.72,SSW,200,5.5,6.6,96,0.00,,,0.40,185.00,VWS V14.01,2013-05-21 11:48:00,
2013-05-21 06:49:00,63.5,62.3,29.71,SSE,158,5.5,6.6,96,0.00,,,0.40,139.00,VWS V14.01,2013-05-21 11:49:00,
2013-05-21 06:50:00,63.5,62.3,29.72,South,189,4.4,5.5,96,0.00,,,0.40,176.00,VWS V14.01,2013-05-21 11:50:00,
2013-05-21 06:52:00,63.7,62.5,29.71,SSE,153,5.5,8.8,96,0.00,,,0.40,171.00,VWS V14.01,2013-05-21 11:52:00,
2013-05-21 06:53:00,63.7,62.5,29.71,SSW,205,4.4,6.6,96,0.00,,,0.40,165.00,VWS V14.01,2013-05-21 11:53:00,
2013-05-21 06:54:00,63.8,62.6,29.71,SE,141,4.4,5.5,96,0.00,,,0.40,158.00,VWS V14.01,2013-05-21 11:54:00,
2013-05-21 06:55:00,63.8,62.3,29.71,South,191,4.4,5.5,95,0.00,,,0.40,144.00,VWS V14.01,2013-05-21 11:55:00,
2013-05-21 06:57:00,63.9,62.4,29.71,SSE,160,6.6,6.6,95,0.00,,,0.40,100.00,VWS V14.01,2013-05-21 11:57:00,
2013-05-21 06:58:00,64.0,62.5,29.71,South,172,5.5,8.8,95,0.00,,,0.40,114.00,VWS V14.01,2013-05-21 11:58:00,
2013-05-21 06:59:00,64.0,62.5,29.71,South,169,1.1,5.5,95,0.00,,,0.40,139.00,VWS V14.01,2013-05-21 11:59:00,
2013-05-21 07:00:00,64.0,62.5,29.71,South,169,1.1,2.2,95,0.00,,,0.40,132.00,VWS V14.01,2013-05-21 12:00:00,
2013-05-21 07:01:00,64.0,62.5,29.71,South,170,3.3,5.5,95,0.00,,,0.40,91.00,VWS V14.01,2013-05-21 12:01:00,
2013-05-21 07:02:00,64.0,62.5,29.71,SE,139,7.7,8.8,95,0.00,,,0.40,91.00,VWS V14.01,2013-05-21 12:02:00,
2013-05-21 07:03:00,64.1,62.6,29.71,SSE,151,5.5,5.5,95,0.00,,,0.40,116.00,VWS V14.01,2013-05-21 12:03:00,
2013-05-21 07:04:00,64.1,62.6,29.71,South,169,3.3,6.6,95,0.00,,,0.40,127.00,VWS V14.01,2013-05-21 12:04:00,
2013-05-21 07:06:00,64.1,62.6,29.71,South,189,6.6,7.7,95,0.00,,,0.40,167.00,VWS V14.01,2013-05-21 12:06:00,
2013-05-21 07:07:00,64.2,62.7,29.71,South,170,1.1,4.4,95,0.00,,,0.40,179.00,VWS V14.01,2013-05-21 12:07:00,
2013-05-21 07:09:00,64.3,62.8,29.71,SSW,192,7.7,7.7,95,0.00,,,0.40,192.00,VWS V14.01,2013-05-21 12:09:00,
2013-05-21 07:12:00,64.5,63.0,29.71,South,189,4.4,4.4,95,0.00,,,0.40,214.00,VWS V14.01,2013-05-21 12:12:00,
2013-05-21 07:13:00,64.5,63.0,29.71,South,177,6.6,9.9,95,0.00,,,0.40,220.00,VWS V14.01,2013-05-21 12:13:00,
2013-05-21 07:14:00,64.6,63.1,29.71,SSE,152,1.1,1.1,95,0.00,,,0.40,223.00,VWS V14.01,2013-05-21 12:14:00,
2013-05-21 07:17:00,64.8,63.3,29.72,SSE,164,6.6,9.9,95,0.00,,,0.40,234.00,VWS V14.01,2013-05-21 12:17:00,
2013-05-21 07:18:00,64.9,63.1,29.72,SSE,162,9.9,12.1,94,0.00,,,0.40,225.00,VWS V14.01,2013-05-21 12:18:00,
2013-05-21 07:20:00,65.0,63.2,29.72,SE,143,3.3,7.7,94,0.00,,,0.40,236.00,VWS V14.01,2013-05-21 12:20:00,
2013-05-21 07:22:00,65.1,63.3,29.72,South,169,5.5,5.5,94,0.00,,,0.40,246.00,VWS V14.01,2013-05-21 12:22:00,
2013-05-21 07:23:00,65.2,63.4,29.72,SSW,197,8.8,11.0,94,0.00,,,0.40,253.00,VWS V14.01,2013-05-21 12:23:00,
2013-05-21 07:24:00,65.2,63.4,29.72,SSW,194,3.3,9.9,94,0.00,,,0.40,257.00,VWS V14.01,2013-05-21 12:24:00,
2013-05-21 07:25:00,65.3,63.5,29.72,SSE,167,4.4,4.4,94,0.00,,,0.40,255.00,VWS V14.01,2013-05-21 12:25:00,
2013-05-21 07:26:00,65.4,63.6,29.72,South,170,6.6,7.7,94,0.00,,,0.40,230.00,VWS V14.01,2013-05-21 12:26:00,
2013-05-21 07:27:00,65.5,63.7,29.72,South,187,4.4,8.8,94,0.00,,,0.40,274.00,VWS V14.01,2013-05-21 12:27:00,
2013-05-21 07:28:00,65.5,63.4,29.72,South,181,3.3,7.7,93,0.00,,,0.40,295.00,VWS V14.01,2013-05-21 12:28:00,
2013-05-21 07:29:00,65.5,63.4,29.72,SSE,158,6.6,6.6,93,0.00,,,0.40,295.00,VWS V14.01,2013-05-21 12:29:00,
2013-05-21 07:31:00,65.7,63.6,29.72,South,181,9.9,9.9,93,0.00,,,0.40,309.00,VWS V14.01,2013-05-21 12:31:00,
2013-05-21 07:34:00,65.9,63.5,29.72,South,185,7.7,9.9,92,0.00,,,0.40,330.00,VWS V14.01,2013-05-21 12:34:00,
2013-05-21 07:36:00,66.1,63.7,29.72,South,180,5.5,7.7,92,0.00,,,0.40,320.00,VWS V14.01,2013-05-21 12:36:00,
2013-05-21 07:38:00,66.3,63.9,29.72,South,184,3.3,5.5,92,0.00,,,0.40,278.00,VWS V14.01,2013-05-21 12:38:00,
2013-05-21 07:39:00,66.4,63.7,29.72,South,179,4.4,6.6,91,0.00,,,0.40,278.00,VWS V14.01,2013-05-21 12:39:00,
2013-05-21 07:40:00,66.5,63.8,29.72,South,170,6.6,6.6,91,0.00,,,0.40,278.00,VWS V14.01,2013-05-21 12:40:00,
2013-05-21 07:42:00,66.7,64.0,29.73,South,187,3.3,5.5,91,0.00,,,0.40,234.00,VWS V14.01,2013-05-21 12:42:00,
2013-05-21 07:44:00,66.8,64.1,29.73,ESE,120,5.5,8.8,91,0.00,,,0.40,369.00,VWS V14.01,2013-05-21 12:44:00,
2013-05-21 07:45:00,66.8,64.1,29.73,SSW,197,7.7,9.9,91,0.00,,,0.40,199.00,VWS V14.01,2013-05-21 12:45:00,
2013-05-21 07:46:00,66.9,63.9,29.73,SSE,164,5.5,7.7,90,0.00,,,0.40,165.00,VWS V14.01,2013-05-21 12:46:00,
2013-05-21 07:48:00,66.8,63.8,29.73,South,172,5.5,8.8,90,0.00,,,0.40,174.00,VWS V14.01,2013-05-21 12:48:00,
2013-05-21 07:49:00,66.9,64.2,29.73,SSE,158,12.1,12.1,91,0.00,,,0.40,190.00,VWS V14.01,2013-05-21 12:49:00,
2013-05-21 07:51:00,66.9,63.9,29.73,SSW,195,3.3,7.7,90,0.00,,,0.40,216.00,VWS V14.01,2013-05-21 12:51:00,
2013-05-21 07:52:00,66.9,63.9,29.73,SSE,158,6.6,6.6,90,0.00,,,0.40,229.00,VWS V14.01,2013-05-21 12:52:00,
2013-05-21 07:55:00,67.0,64.0,29.73,South,177,5.5,9.9,90,0.00,,,0.40,243.00,VWS V14.01,2013-05-21 12:55:00,
2013-05-21 07:56:00,67.1,64.1,29.73,SSW,193,4.4,9.9,90,0.00,,,0.40,236.00,VWS V14.01,2013-05-21 12:56:00,
2013-05-21 07:57:00,67.1,64.1,29.73,SW,222,8.8,9.9,90,0.00,,,0.40,230.00,VWS V14.01,2013-05-21 12:57:00,
2013-05-21 08:00:00,67.2,63.8,29.73,South,181,4.4,11.0,89,0.00,,,0.40,211.00,VWS V14.01,2013-05-21 13:00:00,
2013-05-21 08:01:00,67.2,63.8,29.73,SSW,212,9.9,9.9,89,0.00,,,0.40,211.00,VWS V14.01,2013-05-21 13:01:00,
2013-05-21 08:02:00,67.2,63.8,29.73,South,186,2.2,6.6,89,0.00,,,0.40,206.00,VWS V14.01,2013-05-21 13:02:00,
2013-05-21 08:03:00,67.2,63.8,29.73,SSE,165,3.3,4.4,89,0.00,,,0.40,202.00,VWS V14.01,2013-05-21 13:03:00,
2013-05-21 08:05:00,67.3,64.0,29.74,SSE,167,8.8,8.8,89,0.00,,,0.40,195.00,VWS V14.01,2013-05-21 13:05:00,
2013-05-21 08:06:00,67.3,64.0,29.74,South,170,7.7,12.1,89,0.00,,,0.40,195.00,VWS V14.01,2013-05-21 13:06:00,
2013-05-21 08:07:00,67.3,64.0,29.74,South,182,7.7,12.1,89,0.00,,,0.40,195.00,VWS V14.01,2013-05-21 13:07:00,
2013-05-21 08:08:00,67.3,64.3,29.74,South,172,4.4,12.1,90,0.00,,,0.40,195.00,VWS V14.01,2013-05-21 13:08:00,
2013-05-21 08:11:00,67.3,64.0,29.74,South,191,7.7,9.9,89,0.00,,,0.40,200.00,VWS V14.01,2013-05-21 13:11:00,
2013-05-21 08:13:00,67.4,64.1,29.74,South,176,12.1,12.1,89,0.00,,,0.40,207.00,VWS V14.01,2013-05-21 13:13:00,
2013-05-21 08:17:00,67.5,63.8,29.74,SSW,193,4.4,7.7,88,0.00,,,0.40,223.00,VWS V14.01,2013-05-21 13:17:00,
2013-05-21 08:19:00,67.5,63.5,29.74,South,176,7.7,7.7,87,0.00,,,0.40,232.00,VWS V14.01,2013-05-21 13:19:00,
2013-05-21 08:20:00,67.6,63.9,29.74,SSW,199,5.5,7.7,88,0.00,,,0.40,248.00,VWS V14.01,2013-05-21 13:20:00,
2013-05-21 08:22:00,67.7,63.7,29.74,South,177,8.8,8.8,87,0.00,,,0.40,308.00,VWS V14.01,2013-05-21 13:22:00,
2013-05-21 08:24:00,67.9,64.2,29.74,SW,220,7.7,9.9,88,0.00,,,0.40,308.00,VWS V14.01,2013-05-21 13:24:00,
2013-05-21 08:30:00,68.2,64.2,29.74,SSW,202,11.0,15.4,87,0.00,,,0.40,306.00,VWS V14.01,2013-05-21 13:30:00,
2013-05-21 08:35:00,68.5,64.5,29.74,South,185,9.9,12.1,87,0.00,,,0.40,385.00,VWS V14.01,2013-05-21 13:35:00,
2013-05-21 08:38:00,68.6,63.9,29.75,SSE,168,12.1,18.7,85,0.00,,,0.40,262.00,VWS V14.01,2013-05-21 13:38:00,
2013-05-21 08:40:00,68.6,63.6,29.75,South,174,7.7,22.0,84,0.00,,,0.40,262.00,VWS V14.01,2013-05-21 13:40:00,
2013-05-21 08:41:00,68.6,63.9,29.75,SSW,206,7.7,12.1,85,0.00,,,0.40,526.00,VWS V14.01,2013-05-21 13:41:00,
2013-05-21 08:44:00,68.9,64.2,29.75,SW,216,6.6,16.5,85,0.00,,,0.40,519.00,VWS V14.01,2013-05-21 13:44:00,
2013-05-21 08:45:00,69.0,64.3,29.75,South,187,6.6,17.6,85,0.00,,,0.40,557.00,VWS V14.01,2013-05-21 13:45:00,
2013-05-21 08:46:00,69.1,64.4,29.75,South,183,9.9,17.6,85,0.00,,,0.40,545.00,VWS V14.01,2013-05-21 13:46:00,
2013-05-21 08:51:00,69.5,64.8,29.75,SW,223,7.7,16.5,85,0.00,,,0.40,557.00,VWS V14.01,2013-05-21 13:51:00,
2013-05-21 08:52:00,69.6,64.9,29.75,SSW,200,7.7,16.5,85,0.00,,,0.40,552.00,VWS V14.01,2013-05-21 13:52:00,
2013-05-21 08:56:00,69.9,64.8,29.75,SSW,198,7.7,19.8,84,0.00,,,0.40,638.00,VWS V14.01,2013-05-21 13:56:00,
2013-05-21 08:57:00,70.0,64.9,29.75,SSE,158,8.8,19.8,84,0.00,,,0.40,441.00,VWS V14.01,2013-05-21 13:57:00,
2013-05-21 08:58:00,70.0,64.9,29.75,SSW,202,7.7,19.8,84,0.00,,,0.40,441.00,VWS V14.01,2013-05-21 13:58:00,
2013-05-21 09:02:00,70.0,64.6,29.75,SSE,166,5.5,14.3,83,0.00,,,0.40,441.00,VWS V14.01,2013-05-21 14:02:00,
2013-05-21 09:03:00,70.0,64.9,29.75,SSE,160,6.6,14.3,84,0.00,,,0.40,606.00,VWS V14.01,2013-05-21 14:03:00,
2013-05-21 09:04:00,70.2,65.5,29.75,SSW,207,8.8,15.4,85,0.00,,,0.40,543.00,VWS V14.01,2013-05-21 14:04:00,
2013-05-21 09:08:00,70.3,64.9,29.75,South,187,13.2,15.4,83,0.00,,,0.40,255.00,VWS V14.01,2013-05-21 14:08:00,
2013-05-21 09:09:00,70.2,64.4,29.75,South,174,7.7,18.7,82,0.00,,,0.40,262.00,VWS V14.01,2013-05-21 14:09:00,
2013-05-21 09:10:00,70.1,64.7,29.75,South,187,9.9,18.7,83,0.00,,,0.40,262.00,VWS V14.01,2013-05-21 14:10:00,
2013-05-21 09:13:00,70.3,64.6,29.75,SSW,206,7.7,19.8,82,0.00,,,0.40,795.00,VWS V14.01,2013-05-21 14:13:00,
2013-05-21 09:14:00,70.3,64.9,29.75,SW,226,15.4,19.8,83,0.00,,,0.40,795.00,VWS V14.01,2013-05-21 14:14:00,
2013-05-21 09:15:00,70.4,65.0,29.75,SW,235,6.6,19.8,83,0.00,,,0.40,856.00,VWS V14.01,2013-05-21 14:15:00,
2013-05-21 09:19:00,70.7,64.9,29.75,SSE,166,9.9,22.0,82,0.00,,,0.40,489.00,VWS V14.01,2013-05-21 14:19:00,
2013-05-21 09:20:00,70.6,64.5,29.75,South,185,11.0,22.0,81,0.00,,,0.40,489.00,VWS V14.01,2013-05-21 14:20:00,
2013-05-21 09:21:00,70.5,64.8,29.75,WSW,237,8.8,9.9,82,0.00,,,0.40,320.00,VWS V14.01,2013-05-21 14:21:00,
2013-05-21 09:25:00,70.4,64.7,29.75,SSW,210,6.6,18.7,82,0.00,,,0.40,251.00,VWS V14.01,2013-05-21 14:25:00,
2013-05-21 09:26:00,70.3,64.6,29.75,SSW,204,9.9,18.7,82,0.00,,,0.40,264.00,VWS V14.01,2013-05-21 14:26:00,
2013-05-21 09:28:00,70.0,63.9,29.75,SW,235,12.1,25.3,81,0.00,,,0.40,192.00,VWS V14.01,2013-05-21 14:28:00,
2013-05-21 09:29:00,69.7,64.3,29.75,SSW,206,8.8,25.3,83,0.00,,,0.40,283.00,VWS V14.01,2013-05-21 14:29:00,
2013-05-21 09:30:00,69.7,64.3,29.75,SW,214,8.8,25.3,83,0.00,,,0.40,218.00,VWS V14.01,2013-05-21 14:30:00,
2013-05-21 09:31:00,69.6,64.2,29.75,South,188,6.6,15.4,83,0.00,,,0.40,169.00,VWS V14.01,2013-05-21 14:31:00,
2013-05-21 09:33:00,69.5,64.1,29.74,SSE,156,6.6,15.4,83,0.00,,,0.40,151.00,VWS V14.01,2013-05-21 14:33:00,
2013-05-21 09:34:00,69.5,64.1,29.74,SW,232,9.9,15.4,83,0.00,,,0.40,142.00,VWS V14.01,2013-05-21 14:34:00,
2013-05-21 09:35:00,69.4,64.0,29.74,SSW,193,8.8,16.5,83,0.00,,,0.40,132.00,VWS V14.01,2013-05-21 14:35:00,
2013-05-21 09:36:00,69.4,64.0,29.74,South,191,7.7,16.5,83,0.00,,,0.40,169.00,VWS V14.01,2013-05-21 14:36:00,
2013-05-21 09:40:00,69.4,64.7,29.74,SSE,163,8.8,16.5,85,0.00,,,0.40,192.00,VWS V14.01,2013-05-21 14:40:00,
2013-05-21 09:41:00,69.4,64.7,29.74,South,184,7.7,13.2,85,0.00,,,0.40,262.00,VWS V14.01,2013-05-21 14:41:00,
2013-05-21 09:42:00,69.4,64.4,29.74,SW,214,16.5,17.6,84,0.00,,,0.40,206.00,VWS V14.01,2013-05-21 14:42:00,
2013-05-21 09:44:00,69.4,64.4,29.74,SSW,203,12.1,17.6,84,0.00,,,0.40,181.00,VWS V14.01,2013-05-21 14:44:00,
2013-05-21 09:46:00,69.4,64.4,29.74,SSE,155,11.0,17.6,84,0.00,,,0.40,162.00,VWS V14.01,2013-05-21 14:46:00,
2013-05-21 09:48:00,69.3,64.3,29.74,SSW,206,8.8,17.6,84,0.00,,,0.40,220.00,VWS V14.01,2013-05-21 14:48:00,
2013-05-21 09:50:00,69.3,64.6,29.74,South,183,12.1,17.6,85,0.00,,,0.40,236.00,VWS V14.01,2013-05-21 14:50:00,
2013-05-21 09:51:00,69.3,64.3,29.74,SSW,202,15.4,16.5,84,0.00,,,0.40,230.00,VWS V14.01,2013-05-21 14:51:00,
2013-05-21 09:52:00,69.3,64.6,29.74,South,175,13.2,17.6,85,0.00,,,0.40,230.00,VWS V14.01,2013-05-21 14:52:00,
2013-05-21 09:54:00,69.3,64.3,29.74,SSW,193,8.8,17.6,84,0.00,,,0.40,220.00,VWS V14.01,2013-05-21 14:54:00,
2013-05-21 09:55:00,69.4,64.7,29.74,SSW,196,14.3,19.8,85,0.00,,,0.40,223.00,VWS V14.01,2013-05-21 14:55:00,
2013-05-21 09:56:00,69.4,64.7,29.74,SSE,163,8.8,19.8,85,0.00,,,0.40,244.00,VWS V14.01,2013-05-21 14:56:00,
2013-05-21 09:58:00,69.4,64.4,29.74,SW,222,6.6,19.8,84,0.00,,,0.40,285.00,VWS V14.01,2013-05-21 14:58:00,
2013-05-21 09:59:00,69.4,64.7,29.74,South,189,9.9,19.8,85,0.00,,,0.40,264.00,VWS V14.01,2013-05-21 14:59:00,
2013-05-21 10:01:00,69.6,64.9,29.74,South,174,2.2,12.1,85,0.00,,,0.40,271.00,VWS V14.01,2013-05-21 15:01:00,
2013-05-21 10:02:00,69.7,65.0,29.74,South,172,15.4,15.4,85,0.00,,,0.40,288.00,VWS V14.01,2013-05-21 15:02:00,
2013-05-21 10:04:00,69.8,65.4,29.73,SW,214,15.4,15.4,86,0.00,,,0.40,267.00,VWS V14.01,2013-05-21 15:04:00,
2013-05-21 10:05:00,69.9,65.2,29.73,SSW,205,7.7,15.4,85,0.00,,,0.40,267.00,VWS V14.01,2013-05-21 15:05:00,
2013-05-21 10:08:00,70.0,65.3,29.73,SSE,166,11.0,15.4,85,0.00,,,0.40,230.00,VWS V14.01,2013-05-21 15:08:00,
2013-05-21 10:09:00,70.0,65.3,29.73,South,186,11.0,15.4,85,0.00,,,0.40,241.00,VWS V14.01,2013-05-21 15:09:00,
2013-05-21 10:10:00,70.0,64.9,29.73,WSW,258,7.7,15.4,84,0.00,,,0.40,221.00,VWS V14.01,2013-05-21 15:10:00,
2013-05-21 10:11:00,70.1,65.4,29.73,SW,229,12.1,15.4,85,0.00,,,0.40,207.00,VWS V14.01,2013-05-21 15:11:00,
2013-05-21 10:14:00,70.1,65.1,29.73,SSW,195,15.4,15.4,84,0.00,,,0.40,216.00,VWS V14.01,2013-05-21 15:14:00,
2013-05-21 10:15:00,70.2,65.1,29.73,SSW,192,6.6,15.4,84,0.00,,,0.40,320.00,VWS V14.01,2013-05-21 15:15:00,
2013-05-21 10:16:00,70.2,65.1,29.73,South,190,7.7,15.4,84,0.00,,,0.40,246.00,VWS V14.01,2013-05-21 15:16:00,
2013-05-21 10:17:00,70.3,65.2,29.73,SSE,162,11.0,15.4,84,0.00,,,0.40,237.00,VWS V14.01,2013-05-21 15:17:00,
2013-05-21 10:19:00,70.3,65.2,29.73,SSW,212,7.7,16.5,84,0.00,,,0.40,264.00,VWS V14.01,2013-05-21 15:19:00,
2013-05-21 10:22:00,70.3,64.9,29.73,South,185,11.0,18.7,83,0.00,,,0.40,214.00,VWS V14.01,2013-05-21 15:22:00,
2013-05-21 10:24:00,70.3,64.9,29.73,SW,226,12.1,18.7,83,0.00,,,0.40,272.00,VWS V14.01,2013-05-21 15:24:00,
2013-05-21 10:27:00,70.3,64.9,29.73,South,186,19.8,19.8,83,0.00,,,0.40,279.00,VWS V14.01,2013-05-21 15:27:00,
2013-05-21 10:28:00,70.3,64.9,29.73,SSW,192,11.0,19.8,83,0.00,,,0.40,364.00,VWS V14.01,2013-05-21 15:28:00,
2013-05-21 10:29:00,70.4,65.0,29.73,SW,214,16.5,19.8,83,0.00,,,0.40,345.00,VWS V14.01,2013-05-21 15:29:00,
2013-05-21 10:30:00,70.4,65.0,29.73,South,189,7.7,19.8,83,0.00,,,0.40,364.00,VWS V14.01,2013-05-21 15:30:00,
2013-05-21 10:32:00,70.7,65.3,29.73,SSW,203,11.0,16.5,83,0.00,,,0.40,352.00,VWS V14.01,2013-05-21 15:32:00,
2013-05-21 10:33:00,70.7,65.3,29.73,SSW,198,22.0,22.0,83,0.00,,,0.40,352.00,VWS V14.01,2013-05-21 15:33:00,
2013-05-21 10:34:00,70.9,65.1,29.73,South,175,12.1,22.0,82,0.00,,,0.40,424.00,VWS V14.01,2013-05-21 15:34:00,
2013-05-21 10:36:00,71.0,65.6,29.73,SSW,193,5.5,22.0,83,0.00,,,0.40,529.00,VWS V14.01,2013-05-21 15:36:00,
2013-05-21 10:38:00,71.4,65.6,29.74,SSW,199,11.0,24.2,82,0.00,,,0.40,339.00,VWS V14.01,2013-05-21 15:38:00,
2013-05-21 10:40:00,71.5,65.7,29.73,SSW,197,14.3,14.3,82,0.00,,,0.40,271.00,VWS V14.01,2013-05-21 15:40:00,
2013-05-21 10:42:00,71.4,65.3,29.73,South,183,12.1,18.7,81,0.00,,,0.40,346.00,VWS V14.01,2013-05-21 15:42:00,
2013-05-21 10:43:00,71.4,65.6,29.74,SW,233,9.9,19.8,82,0.00,,,0.40,394.00,VWS V14.01,2013-05-21 15:43:00,
2013-05-21 10:44:00,71.4,65.6,29.74,SW,218,15.4,19.8,82,0.00,,,0.40,394.00,VWS V14.01,2013-05-21 15:44:00,
2013-05-21 10:45:00,71.5,66.1,29.74,West,268,9.9,19.8,83,0.00,,,0.40,399.00,VWS V14.01,2013-05-21 15:45:00,
2013-05-21 10:47:00,71.7,65.9,29.73,SSW,196,8.8,19.8,82,0.00,,,0.40,301.00,VWS V14.01,2013-05-21 15:47:00,
2013-05-21 10:49:00,71.8,66.0,29.74,South,191,7.7,19.8,82,0.00,,,0.40,257.00,VWS V14.01,2013-05-21 15:49:00,
2013-05-21 10:50:00,71.8,66.0,29.74,NW,308,7.7,19.8,82,0.00,,,0.40,239.00,VWS V14.01,2013-05-21 15:50:00,
2013-05-21 10:51:00,71.7,65.6,29.73,SSW,194,14.3,17.6,81,0.00,,,0.40,287.00,VWS V14.01,2013-05-21 15:51:00,
2013-05-21 10:52:00,71.7,65.6,29.73,South,172,18.7,18.7,81,0.00,,,0.40,380.00,VWS V14.01,2013-05-21 15:52:00,
2013-05-21 10:54:00,71.8,66.0,29.73,SW,228,11.0,18.7,82,0.00,,,0.40,359.00,VWS V14.01,2013-05-21 15:54:00,
2013-05-21 10:56:00,72.0,65.9,29.73,SSW,213,11.0,18.7,81,0.00,,,0.40,513.00,VWS V14.01,2013-05-21 15:56:00,
2013-05-21 10:57:00,72.2,66.4,29.73,SW,222,12.1,18.7,82,0.00,,,0.40,513.00,VWS V14.01,2013-05-21 15:57:00,
2013-05-21 10:58:00,72.4,66.6,29.73,West,265,11.0,18.7,82,0.00,,,0.40,302.00,VWS V14.01,2013-05-21 15:58:00,
2013-05-21 10:59:00,72.5,66.3,29.73,SW,227,8.8,18.7,81,0.00,,,0.40,450.00,VWS V14.01,2013-05-21 15:59:00,
2013-05-21 11:02:00,72.6,66.1,29.73,WNW,296,6.6,14.3,80,0.00,,,0.40,417.00,VWS V14.01,2013-05-21 16:02:00,
2013-05-21 11:03:00,72.7,66.2,29.73,SW,224,11.0,14.3,80,0.00,,,0.40,401.00,VWS V14.01,2013-05-21 16:03:00,
2013-05-21 11:04:00,72.8,66.3,29.73,SSW,193,8.8,14.3,80,0.00,,,0.40,457.00,VWS V14.01,2013-05-21 16:04:00,
2013-05-21 11:05:00,72.9,66.4,29.73,SSW,202,7.7,14.3,80,0.00,,,0.40,457.00,VWS V14.01,2013-05-21 16:05:00,
2013-05-21 11:07:00,73.1,66.6,29.73,South,178,8.8,14.3,80,0.00,,,0.40,383.00,VWS V14.01,2013-05-21 16:07:00,
2013-05-21 11:08:00,73.3,67.1,29.73,WSW,253,15.4,15.4,81,0.00,,,0.40,434.00,VWS V14.01,2013-05-21 16:08:00,
2013-05-21 11:09:00,73.5,67.0,29.73,SSW,193,7.7,15.4,80,0.00,,,0.40,452.00,VWS V14.01,2013-05-21 16:09:00,
2013-05-21 11:10:00,73.6,67.1,29.73,South,191,13.2,20.9,80,0.00,,,0.40,522.00,VWS V14.01,2013-05-21 16:10:00,
2013-05-21 11:12:00,73.7,66.8,29.74,SE,137,5.5,14.3,79,0.00,,,0.40,318.00,VWS V14.01,2013-05-21 16:12:00,
2013-05-21 11:13:00,73.7,67.2,29.74,SSW,206,4.4,14.3,80,0.00,,,0.40,257.00,VWS V14.01,2013-05-21 16:13:00,
2013-05-21 11:14:00,73.7,67.2,29.74,South,176,9.9,14.3,80,0.00,,,0.40,258.00,VWS V14.01,2013-05-21 16:14:00,
2013-05-21 11:15:00,73.7,67.5,29.74,SW,216,4.4,14.3,81,0.00,,,0.40,338.00,VWS V14.01,2013-05-21 16:15:00,
2013-05-21 11:19:00,73.8,67.6,29.74,South,172,9.9,15.4,81,0.00,,,0.40,468.00,VWS V14.01,2013-05-21 16:19:00,
2013-05-21 11:20:00,73.9,67.7,29.74,South,180,12.1,15.4,81,0.00,,,0.40,468.00,VWS V14.01,2013-05-21 16:20:00,
2013-05-21 11:21:00,74.1,67.5,29.74,SSW,202,7.7,15.4,80,0.00,,,0.40,520.00,VWS V14.01,2013-05-21 16:21:00,
2013-05-21 11:25:00,74.2,66.9,29.74,SW,216,12.1,17.6,78,0.00,,,0.40,345.00,VWS V14.01,2013-05-21 16:25:00,
2013-05-21 11:26:00,74.2,67.3,29.74,SSW,207,7.7,17.6,79,0.00,,,0.40,345.00,VWS V14.01,2013-05-21 16:26:00,
2013-05-21 11:30:00,74.1,67.2,29.73,South,177,17.6,20.9,79,0.00,,,0.40,564.00,VWS V14.01,2013-05-21 16:30:00,
2013-05-21 11:31:00,74.0,67.1,29.73,South,173,19.8,20.9,79,0.00,,,0.40,564.00,VWS V14.01,2013-05-21 16:31:00,
2013-05-21 11:32:00,73.9,67.0,29.73,SSW,211,15.4,20.9,79,0.00,,,0.40,376.00,VWS V14.01,2013-05-21 16:32:00,
2013-05-21 11:33:00,73.8,67.2,29.74,South,185,12.1,20.9,80,0.00,,,0.40,376.00,VWS V14.01,2013-05-21 16:33:00,
2013-05-21 11:36:00,73.5,67.0,29.74,South,190,8.8,20.9,80,0.00,,,0.40,431.00,VWS V14.01,2013-05-21 16:36:00,
2013-05-21 11:37:00,73.5,66.6,29.74,SSW,202,7.7,20.9,79,0.00,,,0.40,431.00,VWS V14.01,2013-05-21 16:37:00,
2013-05-21 11:38:00,73.5,66.6,29.74,South,186,14.3,20.9,79,0.00,,,0.40,431.00,VWS V14.01,2013-05-21 16:38:00,
2013-05-21 11:39:00,73.6,67.1,29.74,West,262,9.9,20.9,80,0.00,,,0.40,1106.00,VWS V14.01,2013-05-21 16:39:00,
2013-05-21 11:42:00,73.8,66.9,29.74,SSW,195,8.8,18.7,79,0.00,,,0.40,527.00,VWS V14.01,2013-05-21 16:42:00,
2013-05-21 11:43:00,73.8,67.2,29.74,SSW,195,7.7,18.7,80,0.00,,,0.40,527.00,VWS V14.01,2013-05-21 16:43:00,
2013-05-21 11:45:00,74.0,67.1,29.74,South,187,17.6,18.7,79,0.00,,,0.40,436.00,VWS V14.01,2013-05-21 16:45:00,
2013-05-21 11:47:00,74.3,67.7,29.74,SW,222,15.4,18.7,80,0.00,,,0.40,455.00,VWS V14.01,2013-05-21 16:47:00,
2013-05-21 11:48:00,74.3,67.0,29.74,SSE,160,16.5,24.2,78,0.00,,,0.40,390.00,VWS V14.01,2013-05-21 16:48:00,
2013-05-21 11:49:00,74.2,66.9,29.74,SSW,197,12.1,24.2,78,0.00,,,0.40,343.00,VWS V14.01,2013-05-21 16:49:00,
2013-05-21 11:50:00,73.9,67.0,29.74,SSW,205,18.7,18.7,79,0.00,,,0.40,271.00,VWS V14.01,2013-05-21 16:50:00,
2013-05-21 11:54:00,73.5,66.6,29.74,SSW,211,15.4,18.7,79,0.00,,,0.40,353.00,VWS V14.01,2013-05-21 16:54:00,
2013-05-21 11:55:00,73.5,66.6,29.74,SSW,204,9.9,18.7,79,0.00,,,0.40,362.00,VWS V14.01,2013-05-21 16:55:00,
2013-05-21 11:56:00,73.4,66.5,29.74,SSW,209,22.0,22.0,79,0.00,,,0.40,264.00,VWS V14.01,2013-05-21 16:56:00,
2013-05-21 11:59:00,73.2,66.3,29.74,South,174,6.6,23.1,79,0.00,,,0.40,272.00,VWS V14.01,2013-05-21 16:59:00,
2013-05-21 12:00:00,73.2,66.3,29.74,SSW,208,8.8,23.1,79,0.00,,,0.40,272.00,VWS V14.01,2013-05-21 17:00:00,
2013-05-21 12:01:00,73.3,66.8,29.74,SSE,152,9.9,13.2,80,0.00,,,0.40,399.00,VWS V14.01,2013-05-21 17:01:00,
2013-05-21 12:03:00,73.3,66.4,29.74,SSW,204,7.7,13.2,79,0.00,,,0.40,387.00,VWS V14.01,2013-05-21 17:03:00,
2013-05-21 12:05:00,73.5,67.0,29.74,WSW,243,20.9,20.9,80,0.00,,,0.40,374.00,VWS V14.01,2013-05-21 17:05:00,
2013-05-21 12:06:00,73.6,66.7,29.74,SW,230,13.2,20.9,79,0.00,,,0.40,394.00,VWS V14.01,2013-05-21 17:06:00,
2013-05-21 12:07:00,73.6,66.7,29.74,South,172,6.6,20.9,79,0.00,,,0.40,461.00,VWS V14.01,2013-05-21 17:07:00,
2013-05-21 12:08:00,73.7,67.2,29.74,South,174,9.9,20.9,80,0.00,,,0.40,478.00,VWS V14.01,2013-05-21 17:08:00,
2013-05-21 12:10:00,73.9,67.0,29.74,South,181,14.3,20.9,79,0.00,,,0.40,373.00,VWS V14.01,2013-05-21 17:10:00,
2013-05-21 12:12:00,73.9,66.6,29.74,South,190,7.7,17.6,78,0.00,,,0.40,359.00,VWS V14.01,2013-05-21 17:12:00,
2013-05-21 12:14:00,73.9,66.6,29.74,SW,219,13.2,17.6,78,0.00,,,0.40,404.00,VWS V14.01,2013-05-21 17:14:00,
2013-05-21 12:15:00,73.9,66.6,29.74,WSW,247,11.0,17.6,78,0.00,,,0.40,404.00,VWS V14.01,2013-05-21 17:15:00,
2013-05-21 12:16:00,74.0,66.7,29.74,SW,233,12.1,17.6,78,0.00,,,0.40,404.00,VWS V14.01,2013-05-21 17:16:00,
2013-05-21 12:17:00,74.1,67.2,29.74,South,177,5.5,17.6,79,0.00,,,0.40,557.00,VWS V14.01,2013-05-21 17:17:00,
2013-05-21 12:18:00,74.2,66.9,29.74,SW,231,3.3,17.6,78,0.00,,,0.40,489.00,VWS V14.01,2013-05-21 17:18:00,
2013-05-21 12:19:00,74.4,67.1,29.74,SW,218,8.8,17.6,78,0.00,,,0.40,489.00,VWS V14.01,2013-05-21 17:19:00,
2013-05-21 12:21:00,74.5,67.6,29.74,West,262,8.8,15.4,79,0.00,,,0.40,461.00,VWS V14.01,2013-05-21 17:21:00,
2013-05-21 12:23:00,74.5,67.2,29.74,West,268,11.0,16.5,78,0.00,,,0.40,461.00,VWS V14.01,2013-05-21 17:23:00,
2013-05-21 12:24:00,74.5,67.2,29.73,WSW,256,19.8,24.2,78,0.00,,,0.40,345.00,VWS V14.01,2013-05-21 17:24:00,
2013-05-21 12:25:00,74.4,66.7,29.74,West,259,14.3,24.2,77,0.00,,,0.40,345.00,VWS V14.01,2013-05-21 17:25:00,
2013-05-21 12:26:00,74.4,66.7,29.73,West,266,15.4,24.2,77,0.00,,,0.40,371.00,VWS V14.01,2013-05-21 17:26:00,
2013-05-21 12:28:00,74.3,67.0,29.74,South,183,16.5,24.2,78,0.00,,,0.40,373.00,VWS V14.01,2013-05-21 17:28:00,
2013-05-21 12:29:00,74.3,67.0,29.73,SSW,212,8.8,24.2,78,0.00,,,0.40,408.00,VWS V14.01,2013-05-21 17:29:00,
2013-05-21 12:32:00,74.5,67.6,29.73,West,270,11.0,18.7,79,0.00,,,0.40,406.00,VWS V14.01,2013-05-21 17:32:00,
2013-05-21 12:33:00,74.6,67.3,29.73,SSW,205,11.0,18.7,78,0.00,,,0.40,406.00,VWS V14.01,2013-05-21 17:33:00,
2013-05-21 12:34:00,74.7,67.0,29.73,SW,216,15.4,18.7,77,0.00,,,0.40,721.00,VWS V14.01,2013-05-21 17:34:00,
2013-05-21 12:35:00,74.9,67.2,29.73,West,274,12.1,18.7,77,0.00,,,0.40,721.00,VWS V14.01,2013-05-21 17:35:00,
2013-05-21 12:38:00,75.2,67.5,29.73,SSW,209,14.3,18.7,77,0.00,,,0.40,468.00,VWS V14.01,2013-05-21 17:38:00,
2013-05-21 12:39:00,75.2,67.9,29.73,SSW,207,7.7,18.7,78,0.00,,,0.40,390.00,VWS V14.01,2013-05-21 17:39:00,
2013-05-21 12:40:00,75.2,67.5,29.73,WSW,243,6.6,18.7,77,0.00,,,0.40,341.00,VWS V14.01,2013-05-21 17:40:00,
2013-05-21 12:41:00,75.1,67.0,29.73,SSW,204,7.7,7.7,76,0.00,,,0.40,341.00,VWS V14.01,2013-05-21 17:41:00,
2013-05-21 12:43:00,75.2,67.9,29.73,SSW,197,6.6,13.2,78,0.00,,,0.40,439.00,VWS V14.01,2013-05-21 17:43:00,
2013-05-21 12:45:00,75.4,67.7,29.73,SSW,204,12.1,13.2,77,0.00,,,0.40,281.00,VWS V14.01,2013-05-21 17:45:00,
2013-05-21 12:46:00,75.4,67.3,29.73,SSW,195,8.8,15.4,76,0.00,,,0.40,339.00,VWS V14.01,2013-05-21 17:46:00,
2013-05-21 12:49:00,75.2,67.5,29.73,SW,217,5.5,16.5,77,0.00,,,0.40,522.00,VWS V14.01,2013-05-21 17:49:00,
2013-05-21 12:50:00,75.2,67.5,29.73,WSW,246,11.0,16.5,77,0.00,,,0.40,522.00,VWS V14.01,2013-05-21 17:50:00,
2013-05-21 12:51:00,75.2,67.1,29.73,SSW,199,7.7,8.8,76,0.00,,,0.40,322.00,VWS V14.01,2013-05-21 17:51:00,
2013-05-21 12:52:00,75.1,67.0,29.73,SSW,199,14.3,20.9,76,0.00,,,0.40,309.00,VWS V14.01,2013-05-21 17:52:00,
2013-05-21 12:55:00,74.9,66.4,29.73,South,172,3.3,20.9,75,0.00,,,0.40,360.00,VWS V14.01,2013-05-21 17:55:00,
2013-05-21 12:56:00,74.9,66.8,29.73,SW,226,8.8,20.9,76,0.00,,,0.40,267.00,VWS V14.01,2013-05-21 17:56:00,
2013-05-21 12:57:00,75.0,67.7,29.73,South,179,11.0,20.9,78,0.00,,,0.40,408.00,VWS V14.01,2013-05-21 17:57:00,
2013-05-21 12:58:00,75.0,67.3,29.73,SSW,200,8.8,20.9,77,0.00,,,0.40,408.00,VWS V14.01,2013-05-21 17:58:00,
2013-05-21 13:01:00,75.2,67.9,29.73,SSW,195,5.5,7.7,78,0.00,,,0.40,475.00,VWS V14.01,2013-05-21 18:01:00,
2013-05-21 13:02:00,75.3,68.0,29.73,SW,215,11.0,14.3,78,0.00,,,0.40,469.00,VWS V14.01,2013-05-21 18:02:00,
2013-05-21 13:03:00,75.6,67.5,29.73,WSW,244,8.8,14.3,76,0.00,,,0.40,487.00,VWS V14.01,2013-05-21 18:03:00,
2013-05-21 13:04:00,75.7,68.0,29.74,West,260,7.7,14.3,77,0.00,,,0.40,487.00,VWS V14.01,2013-05-21 18:04:00,
2013-05-21 13:07:00,76.0,67.5,29.73,WSW,245,8.8,17.6,75,0.00,,,0.40,439.00,VWS V14.01,2013-05-21 18:07:00,
2013-05-21 13:08:00,76.0,67.9,29.73,SW,214,8.8,19.8,76,0.00,,,0.40,439.00,VWS V14.01,2013-05-21 18:08:00,
2013-05-21 13:09:00,76.2,67.7,29.73,SSW,213,11.0,19.8,75,0.00,,,0.40,439.00,VWS V14.01,2013-05-21 18:09:00,
2013-05-21 13:11:00,76.3,67.8,29.73,SSW,193,13.2,19.8,75,0.00,,,0.40,439.00,VWS V14.01,2013-05-21 18:11:00,
2013-05-21 13:12:00,76.4,67.5,29.73,WSW,241,8.8,19.8,74,0.00,,,0.40,439.00,VWS V14.01,2013-05-21 18:12:00,
2013-05-21 13:13:00,76.4,67.5,29.73,SSW,206,11.0,19.8,74,0.00,,,0.40,439.00,VWS V14.01,2013-05-21 18:13:00,
2013-05-21 13:15:00,77.0,68.1,29.73,SSE,168,16.5,19.8,74,0.00,,,0.40,439.00,VWS V14.01,2013-05-21 18:15:00,
2013-05-21 13:17:00,77.0,67.7,29.73,SSW,211,7.7,19.8,73,0.00,,,0.40,439.00,VWS V14.01,2013-05-21 18:17:00,
2013-05-21 13:18:00,76.7,67.4,29.73,SW,233,13.2,19.8,73,0.00,,,0.40,294.00,VWS V14.01,2013-05-21 18:18:00,
2013-05-21 13:19:00,76.6,67.3,29.73,SE,141,8.8,19.8,73,0.00,,,0.40,294.00,VWS V14.01,2013-05-21 18:19:00,
2013-05-21 13:23:00,76.3,67.8,29.73,WSW,252,11.0,16.5,75,0.00,,,0.40,761.00,VWS V14.01,2013-05-21 18:23:00,
2013-05-21 13:24:00,76.3,67.4,29.73,SSW,206,12.1,16.5,74,0.00,,,0.40,373.00,VWS V14.01,2013-05-21 18:24:00,
2013-05-21 13:25:00,76.5,68.0,29.73,SSW,194,13.2,16.5,75,0.00,,,0.40,1230.00,VWS V14.01,2013-05-21 18:25:00,
2013-05-21 13:26:00,76.6,67.7,29.73,SSW,208,11.0,16.5,74,0.00,,,0.40,1230.00,VWS V14.01,2013-05-21 18:26:00,
2013-05-21 13:28:00,77.2,68.3,29.73,SSW,201,16.5,17.6,74,0.00,,,0.40,902.00,VWS V14.01,2013-05-21 18:28:00,
2013-05-21 13:29:00,77.6,67.9,29.73,SW,236,8.8,17.6,72,0.00,,,0.40,902.00,VWS V14.01,2013-05-21 18:29:00,
2013-05-21 13:31:00,77.8,68.1,29.73,SSW,206,7.7,12.1,72,0.00,,,0.40,341.00,VWS V14.01,2013-05-21 18:31:00,
2013-05-21 13:33:00,77.7,67.6,29.73,SSW,206,5.5,14.3,71,0.00,,,0.40,269.00,VWS V14.01,2013-05-21 18:33:00,
2013-05-21 13:35:00,77.5,68.2,29.73,SSE,154,7.7,14.3,73,0.00,,,0.40,339.00,VWS V14.01,2013-05-21 18:35:00,
2013-05-21 13:36:00,77.4,67.7,29.73,South,186,18.7,18.7,72,0.00,,,0.40,339.00,VWS V14.01,2013-05-21 18:36:00,
2013-05-21 13:39:00,76.9,68.0,29.73,SW,218,5.5,19.8,74,0.00,,,0.40,434.00,VWS V14.01,2013-05-21 18:39:00,
2013-05-21 13:40:00,76.9,68.0,29.73,South,189,13.2,19.8,74,0.00,,,0.40,434.00,VWS V14.01,2013-05-21 18:40:00,
2013-05-21 13:41:00,76.9,68.4,29.73,SSW,206,7.7,17.6,75,0.00,,,0.40,434.00,VWS V14.01,2013-05-21 18:41:00,
2013-05-21 13:42:00,77.0,68.9,29.73,SSW,197,7.7,17.6,76,0.00,,,0.40,434.00,VWS V14.01,2013-05-21 18:42:00,
2013-05-21 13:45:00,77.7,68.0,29.73,SSW,204,13.2,17.6,72,0.00,,,0.40,1056.00,VWS V14.01,2013-05-21 18:45:00,
2013-05-21 13:46:00,77.7,68.0,29.73,WSW,258,15.4,17.6,72,0.00,,,0.40,274.00,VWS V14.01,2013-05-21 18:46:00,
2013-05-21 13:47:00,77.5,67.8,29.73,SW,232,18.7,18.7,72,0.00,,,0.40,281.00,VWS V14.01,2013-05-21 18:47:00,
2013-05-21 13:48:00,77.5,67.8,29.73,WSW,246,12.1,18.7,72,0.00,,,0.40,281.00,VWS V14.01,2013-05-21 18:48:00,
2013-05-21 13:50:00,76.9,67.6,29.73,SSW,204,9.9,18.7,73,0.00,,,0.40,345.00,VWS V14.01,2013-05-21 18:50:00,
2013-05-21 13:52:00,76.9,68.0,29.73,South,175,12.1,13.2,74,0.00,,,0.40,345.00,VWS V14.01,2013-05-21 18:52:00,
2013-05-21 13:53:00,77.0,68.1,29.73,SW,228,18.7,18.7,74,0.00,,,0.40,345.00,VWS V14.01,2013-05-21 18:53:00,
2013-05-21 13:54:00,77.1,67.8,29.73,WSW,258,8.8,19.8,73,0.00,,,0.40,345.00,VWS V14.01,2013-05-21 18:54:00,
2013-05-21 13:56:00,77.6,69.1,29.73,WSW,240,4.4,24.2,75,0.00,,,0.40,1034.00,VWS V14.01,2013-05-21 18:56:00,
2013-05-21 13:57:00,77.7,68.4,29.73,SSE,165,6.6,24.2,73,0.00,,,0.40,1014.00,VWS V14.01,2013-05-21 18:57:00,
2013-05-21 13:58:00,78.2,69.2,29.73,SW,230,12.1,24.2,74,0.00,,,0.40,1014.00,VWS V14.01,2013-05-21 18:58:00,
2013-05-21 13:59:00,78.3,69.3,29.73,SW,229,9.9,24.2,74,0.00,,,0.40,1014.00,VWS V14.01,2013-05-21 18:59:00,
2013-05-21 14:02:00,78.8,69.0,29.73,SSW,210,8.8,19.8,72,0.00,,,0.40,984.00,VWS V14.01,2013-05-21 19:02:00,
2013-05-21 14:03:00,78.9,68.3,29.73,South,172,2.2,19.8,70,0.00,,,0.40,970.00,VWS V14.01,2013-05-21 19:03:00,
2013-05-21 14:04:00,79.0,68.4,29.73,SSW,213,8.8,19.8,70,0.00,,,0.40,1018.00,VWS V14.01,2013-05-21 19:04:00,
2013-05-21 14:05:00,79.3,70.3,29.73,SSW,195,17.6,19.8,74,0.00,,,0.40,1018.00,VWS V14.01,2013-05-21 19:05:00,
2013-05-21 14:07:00,79.6,69.8,29.73,SW,222,14.3,19.8,72,0.00,,,0.40,958.00,VWS V14.01,2013-05-21 19:07:00,
2013-05-21 14:08:00,79.6,68.5,29.73,SW,227,13.2,19.8,69,0.00,,,0.40,958.00,VWS V14.01,2013-05-21 19:08:00,
2013-05-21 14:09:00,79.5,68.4,29.73,SW,214,11.0,19.8,69,0.00,,,0.40,856.00,VWS V14.01,2013-05-21 19:09:00,
2013-05-21 14:12:00,79.1,68.5,29.73,SSW,204,11.0,18.7,70,0.00,,,0.40,856.00,VWS V14.01,2013-05-21 19:12:00,
2013-05-21 14:13:00,79.1,68.9,29.73,WSW,252,9.9,18.7,71,0.00,,,0.40,856.00,VWS V14.01,2013-05-21 19:13:00,
2013-05-21 14:14:00,79.1,68.9,29.73,WSW,240,12.1,18.7,71,0.00,,,0.40,735.00,VWS V14.01,2013-05-21 19:14:00,
2013-05-21 14:15:00,79.1,69.3,29.73,West,260,6.6,18.7,72,0.00,,,0.40,735.00,VWS V14.01,2013-05-21 19:15:00,
2013-05-21 14:16:00,79.2,69.4,29.72,SSW,206,4.4,18.7,72,0.00,,,0.40,397.00,VWS V14.01,2013-05-21 19:16:00,
2013-05-21 14:18:00,79.1,68.5,29.72,SW,225,8.8,18.7,70,0.00,,,0.40,295.00,VWS V14.01,2013-05-21 19:18:00,
2013-05-21 14:20:00,79.0,68.8,29.72,SSW,207,9.9,18.7,71,0.00,,,0.40,295.00,VWS V14.01,2013-05-21 19:20:00,
2013-05-21 14:21:00,78.9,68.3,29.72,South,185,14.3,14.3,70,0.00,,,0.40,295.00,VWS V14.01,2013-05-21 19:21:00,
2013-05-21 14:24:00,79.0,68.8,29.72,WSW,247,15.4,20.9,71,0.00,,,0.40,972.00,VWS V14.01,2013-05-21 19:24:00,
2013-05-21 14:26:00,79.2,67.7,29.72,SSW,210,6.6,20.9,68,0.00,,,0.40,972.00,VWS V14.01,2013-05-21 19:26:00,
2013-05-21 14:27:00,79.1,67.6,29.72,WSW,255,5.5,20.9,68,0.00,,,0.40,972.00,VWS V14.01,2013-05-21 19:27:00,
2013-05-21 14:30:00,79.3,67.4,29.72,SW,220,16.5,20.9,67,0.00,,,0.40,956.00,VWS V14.01,2013-05-21 19:30:00,
2013-05-21 14:32:00,79.4,67.9,29.72,WSW,243,18.7,18.7,68,0.00,,,0.40,960.00,VWS V14.01,2013-05-21 19:32:00,
2013-05-21 14:33:00,79.5,68.0,29.72,WSW,243,9.9,18.7,68,0.00,,,0.40,939.00,VWS V14.01,2013-05-21 19:33:00,
2013-05-21 14:37:00,79.6,68.1,29.72,South,183,17.6,20.9,68,0.00,,,0.40,960.00,VWS V14.01,2013-05-21 19:37:00,
2013-05-21 14:38:00,79.6,68.1,29.72,WSW,237,5.5,20.9,68,0.00,,,0.40,960.00,VWS V14.01,2013-05-21 19:38:00,
2013-05-21 14:39:00,79.5,68.4,29.72,South,191,6.6,20.9,69,0.00,,,0.40,960.00,VWS V14.01,2013-05-21 19:39:00,
2013-05-21 14:40:00,79.4,68.3,29.72,South,172,9.9,20.9,69,0.00,,,0.40,322.00,VWS V14.01,2013-05-21 19:40:00,
2013-05-21 14:42:00,79.6,70.2,29.72,ESE,122,7.7,11.0,73,0.00,,,0.40,193.00,VWS V14.01,2013-05-21 19:42:00,
2013-05-21 14:43:00,79.6,70.2,29.72,South,176,6.6,11.0,73,0.00,,,0.40,193.00,VWS V14.01,2013-05-21 19:43:00,
2013-05-21 14:44:00,79.6,69.0,29.72,SSW,208,6.6,11.0,70,0.00,,,0.40,193.00,VWS V14.01,2013-05-21 19:44:00,
2013-05-21 14:45:00,79.7,69.1,29.72,SW,218,9.9,14.3,70,0.00,,,0.40,193.00,VWS V14.01,2013-05-21 19:45:00,
2013-05-21 14:48:00,80.1,69.0,29.72,WSW,241,13.2,16.5,69,0.00,,,0.40,912.00,VWS V14.01,2013-05-21 19:48:00,
2013-05-21 14:50:00,80.4,68.4,29.72,SW,229,14.3,16.5,67,0.00,,,0.40,902.00,VWS V14.01,2013-05-21 19:50:00,
2013-05-21 14:51:00,80.4,68.9,29.72,SW,214,15.4,15.4,68,0.00,,,0.40,902.00,VWS V14.01,2013-05-21 19:51:00,
2013-05-21 14:53:00,80.5,68.5,29.72,WSW,249,7.7,15.4,67,0.00,,,0.40,926.00,VWS V14.01,2013-05-21 19:53:00,
2013-05-21 14:54:00,80.6,69.1,29.72,SSW,202,9.9,15.4,68,0.00,,,0.40,926.00,VWS V14.01,2013-05-21 19:54:00,
2013-05-21 14:56:00,80.6,69.1,29.72,SW,233,11.0,15.4,68,0.00,,,0.40,872.00,VWS V14.01,2013-05-21 19:56:00,
2013-05-21 14:59:00,81.0,69.0,29.72,WSW,239,8.8,16.5,67,0.00,,,0.40,847.00,VWS V14.01,2013-05-21 19:59:00,
2013-05-21 15:01:00,81.1,67.8,29.72,West,271,7.7,7.7,64,0.00,,,0.40,891.00,VWS V14.01,2013-05-21 20:01:00,
2013-05-21 15:02:00,81.0,68.1,29.72,SSW,200,14.3,18.7,65,0.00,,,0.40,891.00,VWS V14.01,2013-05-21 20:02:00,
2013-05-21 15:04:00,81.0,68.6,29.72,SW,218,13.2,18.7,66,0.00,,,0.40,919.00,VWS V14.01,2013-05-21 20:04:00,
2013-05-21 15:06:00,81.1,68.2,29.72,SSW,198,14.3,20.9,65,0.00,,,0.40,292.00,VWS V14.01,2013-05-21 20:06:00,
2013-05-21 15:07:00,80.9,67.6,29.72,West,262,8.8,20.9,64,0.00,,,0.40,292.00,VWS V14.01,2013-05-21 20:07:00,
2013-05-21 15:10:00,80.6,68.6,29.72,SW,228,11.0,20.9,67,0.00,,,0.40,292.00,VWS V14.01,2013-05-21 20:10:00,
2013-05-21 15:12:00,80.9,68.5,29.72,SW,229,13.2,15.4,66,0.00,,,0.40,951.00,VWS V14.01,2013-05-21 20:12:00,
2013-05-21 15:13:00,80.9,68.0,29.72,SW,235,14.3,16.5,65,0.00,,,0.40,951.00,VWS V14.01,2013-05-21 20:13:00,
2013-05-21 15:15:00,81.0,68.1,29.71,SW,215,7.7,16.5,65,0.00,,,0.40,896.00,VWS V14.01,2013-05-21 20:15:00,
2013-05-21 15:18:00,81.1,68.2,29.72,WSW,256,11.0,16.5,65,0.00,,,0.40,919.00,VWS V14.01,2013-05-21 20:18:00,
2013-05-21 15:20:00,80.6,68.2,29.71,SW,229,11.0,16.5,66,0.00,,,0.40,919.00,VWS V14.01,2013-05-21 20:20:00,
2013-05-21 15:21:00,80.5,68.1,29.71,SW,235,8.8,11.0,66,0.00,,,0.40,919.00,VWS V14.01,2013-05-21 20:21:00,
2013-05-21 15:23:00,80.0,67.6,29.71,SW,233,6.6,18.7,66,0.00,,,0.40,288.00,VWS V14.01,2013-05-21 20:23:00,
2013-05-21 15:24:00,79.9,67.5,29.71,WSW,253,5.5,18.7,66,0.00,,,0.40,318.00,VWS V14.01,2013-05-21 20:24:00,
2013-05-21 15:25:00,79.6,67.7,29.71,WSW,245,14.3,18.7,67,0.00,,,0.40,306.00,VWS V14.01,2013-05-21 20:25:00,
2013-05-21 15:27:00,79.7,67.3,29.71,SW,230,13.2,18.7,66,0.00,,,0.40,302.00,VWS V14.01,2013-05-21 20:27:00,
2013-05-21 15:28:00,79.7,67.3,29.71,WSW,258,11.0,18.7,66,0.00,,,0.40,283.00,VWS V14.01,2013-05-21 20:28:00,
2013-05-21 15:29:00,79.7,67.3,29.71,WSW,238,8.8,18.7,66,0.00,,,0.40,283.00,VWS V14.01,2013-05-21 20:29:00,
2013-05-21 15:31:00,80.0,68.1,29.71,WSW,239,11.0,18.7,67,0.00,,,0.40,949.00,VWS V14.01,2013-05-21 20:31:00,
2013-05-21 15:33:00,80.3,67.9,29.71,SW,228,8.8,22.0,66,0.00,,,0.40,928.00,VWS V14.01,2013-05-21 20:33:00,
2013-05-21 15:34:00,80.3,67.9,29.71,SW,231,14.3,22.0,66,0.00,,,0.40,928.00,VWS V14.01,2013-05-21 20:34:00,
2013-05-21 15:35:00,80.5,68.1,29.71,SW,235,6.6,22.0,66,0.00,,,0.40,928.00,VWS V14.01,2013-05-21 20:35:00,
2013-05-21 15:37:00,80.5,68.5,29.71,SSE,161,8.8,22.0,67,0.00,,,0.40,246.00,VWS V14.01,2013-05-21 20:37:00,
2013-05-21 15:39:00,80.7,68.3,29.71,WSW,250,12.1,22.0,66,0.00,,,0.40,246.00,VWS V14.01,2013-05-21 20:39:00,
2013-05-21 15:40:00,80.9,68.9,29.71,SW,215,13.2,22.0,67,0.00,,,0.40,246.00,VWS V14.01,2013-05-21 20:40:00,
2013-05-21 15:42:00,81.1,68.7,29.71,WSW,249,6.6,7.7,66,0.00,,,0.40,833.00,VWS V14.01,2013-05-21 20:42:00,
2013-05-21 15:44:00,81.4,68.5,29.71,South,170,11.0,15.4,65,0.00,,,0.40,809.00,VWS V14.01,2013-05-21 20:44:00,
2013-05-21 15:45:00,81.5,68.2,29.71,SSW,213,9.9,15.4,64,0.00,,,0.40,854.00,VWS V14.01,2013-05-21 20:45:00,
2013-05-21 15:46:00,81.6,68.2,29.71,WSW,251,14.3,19.8,64,0.00,,,0.40,854.00,VWS V14.01,2013-05-21 20:46:00,
2013-05-21 15:47:00,81.6,68.2,29.71,WSW,253,12.1,19.8,64,0.00,,,0.40,854.00,VWS V14.01,2013-05-21 20:47:00,
2013-05-21 15:49:00,81.4,67.6,29.71,SW,235,12.1,19.8,63,0.00,,,0.40,659.00,VWS V14.01,2013-05-21 20:49:00,
2013-05-21 15:50:00,81.4,68.5,29.71,WSW,245,16.5,19.8,65,0.00,,,0.40,795.00,VWS V14.01,2013-05-21 20:50:00,
2013-05-21 15:51:00,81.4,68.1,29.71,West,262,13.2,13.2,64,0.00,,,0.40,795.00,VWS V14.01,2013-05-21 20:51:00,
2013-05-21 15:52:00,81.3,68.0,29.71,SW,231,12.1,19.8,64,0.00,,,0.40,802.00,VWS V14.01,2013-05-21 20:52:00,
2013-05-21 15:54:00,81.3,68.0,29.71,SW,222,14.3,19.8,64,0.00,,,0.40,831.00,VWS V14.01,2013-05-21 20:54:00,
2013-05-21 15:55:00,81.4,68.1,29.71,SW,228,14.3,19.8,64,0.00,,,0.40,826.00,VWS V14.01,2013-05-21 20:55:00,
2013-05-21 15:56:00,81.4,68.1,29.71,SW,215,7.7,20.9,64,0.00,,,0.40,826.00,VWS V14.01,2013-05-21 20:56:00,
2013-05-21 15:57:00,81.4,68.1,29.70,West,264,7.7,20.9,64,0.00,,,0.40,826.00,VWS V14.01,2013-05-21 20:57:00,
2013-05-21 15:58:00,81.4,68.1,29.70,SW,214,9.9,20.9,64,0.00,,,0.40,682.00,VWS V14.01,2013-05-21 20:58:00,
2013-05-21 15:59:00,81.3,68.0,29.71,SW,218,9.9,20.9,64,0.00,,,0.40,635.00,VWS V14.01,2013-05-21 20:59:00,
2013-05-21 16:01:00,81.3,68.4,29.71,SW,222,15.4,16.5,65,0.00,,,0.40,636.00,VWS V14.01,2013-05-21 21:01:00,
2013-05-21 16:02:00,81.3,68.4,29.70,South,189,9.9,16.5,65,0.00,,,0.40,636.00,VWS V14.01,2013-05-21 21:02:00,
2013-05-21 16:03:00,81.2,68.3,29.70,SW,226,4.4,16.5,65,0.00,,,0.40,279.00,VWS V14.01,2013-05-21 21:03:00,
2013-05-21 16:06:00,80.5,67.7,29.71,WSW,238,8.8,18.7,65,0.00,,,0.40,279.00,VWS V14.01,2013-05-21 21:06:00,
2013-05-21 16:07:00,80.4,68.0,29.71,SW,219,7.7,20.9,66,0.00,,,0.40,341.00,VWS V14.01,2013-05-21 21:07:00,
2013-05-21 16:08:00,80.3,67.9,29.70,SW,227,11.0,20.9,66,0.00,,,0.40,341.00,VWS V14.01,2013-05-21 21:08:00,
2013-05-21 16:09:00,80.4,68.0,29.70,SW,223,5.5,20.9,66,0.00,,,0.40,341.00,VWS V14.01,2013-05-21 21:09:00,
2013-05-21 16:11:00,80.7,68.3,29.70,SSW,213,7.7,17.6,66,0.00,,,0.40,294.00,VWS V14.01,2013-05-21 21:11:00,
2013-05-21 16:12:00,80.7,68.3,29.70,SSW,210,16.5,17.6,66,0.00,,,0.40,294.00,VWS V14.01,2013-05-21 21:12:00,
2013-05-21 16:13:00,80.8,68.4,29.70,SW,219,8.8,17.6,66,0.00,,,0.40,824.00,VWS V14.01,2013-05-21 21:13:00,
2013-05-21 16:14:00,80.9,68.0,29.70,SW,236,13.2,17.6,65,0.00,,,0.40,788.00,VWS V14.01,2013-05-21 21:14:00,
2013-05-21 16:17:00,81.2,68.3,29.70,SSW,192,8.8,17.6,65,0.00,,,0.40,744.00,VWS V14.01,2013-05-21 21:17:00,
2013-05-21 16:18:00,81.3,67.5,29.70,SSW,199,11.0,17.6,63,0.00,,,0.40,772.00,VWS V14.01,2013-05-21 21:18:00,
2013-05-21 16:20:00,81.4,68.5,29.70,South,191,7.7,19.8,65,0.00,,,0.40,744.00,VWS V14.01,2013-05-21 21:20:00,
2013-05-21 16:23:00,81.3,68.0,29.70,WSW,244,3.3,11.0,64,0.00,,,0.40,744.00,VWS V14.01,2013-05-21 21:23:00,
2013-05-21 16:24:00,81.4,69.0,29.70,South,179,4.4,12.1,66,0.00,,,0.40,675.00,VWS V14.01,2013-05-21 21:24:00,
2013-05-21 16:25:00,81.5,69.1,29.70,SSW,193,7.7,12.1,66,0.00,,,0.40,680.00,VWS V14.01,2013-05-21 21:25:00,
2013-05-21 16:29:00,81.6,67.8,29.70,South,175,12.1,22.0,63,0.00,,,0.40,214.00,VWS V14.01,2013-05-21 21:29:00,
2013-05-21 16:30:00,81.3,68.0,29.70,SSW,208,9.9,22.0,64,0.00,,,0.40,223.00,VWS V14.01,2013-05-21 21:30:00,
2013-05-21 16:35:00,80.4,67.6,29.70,SSW,207,8.8,17.6,65,0.00,,,0.40,316.00,VWS V14.01,2013-05-21 21:35:00,
2013-05-21 16:36:00,80.2,67.8,29.70,SW,216,15.4,17.6,66,0.00,,,0.40,316.00,VWS V14.01,2013-05-21 21:36:00,
2013-05-21 16:40:00,80.0,68.1,29.70,SW,218,7.7,17.6,67,0.00,,,0.40,163.00,VWS V14.01,2013-05-21 21:40:00,
2013-05-21 16:41:00,80.1,68.6,29.70,WSW,253,8.8,8.8,68,0.00,,,0.40,659.00,VWS V14.01,2013-05-21 21:41:00,
2013-05-21 16:42:00,80.3,68.3,29.70,SSW,203,7.7,11.0,67,0.00,,,0.40,200.00,VWS V14.01,2013-05-21 21:42:00,
2013-05-21 16:46:00,80.6,68.6,29.70,SSW,197,4.4,17.6,67,0.00,,,0.40,638.00,VWS V14.01,2013-05-21 21:46:00,
2013-05-21 16:48:00,80.8,67.9,29.70,SSW,203,9.9,17.6,65,0.00,,,0.40,615.00,VWS V14.01,2013-05-21 21:48:00,
2013-05-21 16:51:00,81.2,67.9,29.69,SSE,147,8.8,13.2,64,0.00,,,0.40,606.00,VWS V14.01,2013-05-21 21:51:00,
2013-05-21 16:53:00,81.2,67.9,29.70,SSW,204,9.9,17.6,64,0.00,,,0.40,606.00,VWS V14.01,2013-05-21 21:53:00,
2013-05-21 16:54:00,81.0,67.7,29.69,South,188,13.2,17.6,64,0.00,,,0.40,606.00,VWS V14.01,2013-05-21 21:54:00,
2013-05-21 16:58:00,80.4,67.6,29.69,SSE,155,6.6,18.7,65,0.00,,,0.40,169.00,VWS V14.01,2013-05-21 21:58:00,
2013-05-21 16:59:00,80.3,67.9,29.69,SW,224,7.7,18.7,66,0.00,,,0.40,169.00,VWS V14.01,2013-05-21 21:59:00,
2013-05-21 17:00:00,80.3,68.3,29.69,SW,222,6.6,6.6,67,0.00,,,0.40,578.00,VWS V14.01,2013-05-21 22:00:00,
2013-05-21 17:01:00,80.3,68.3,29.69,SW,222,3.3,8.8,67,0.00,,,0.40,582.00,VWS V14.01,2013-05-21 22:01:00,
2013-05-21 17:03:00,80.9,69.4,29.69,WSW,239,9.9,9.9,68,0.00,,,0.40,594.00,VWS V14.01,2013-05-21 22:03:00,
2013-05-21 17:04:00,81.0,69.0,29.69,SW,223,6.6,9.9,67,0.00,,,0.40,594.00,VWS V14.01,2013-05-21 22:04:00,
2013-05-21 17:05:00,81.1,68.7,29.69,South,191,12.1,12.1,66,0.00,,,0.40,536.00,VWS V14.01,2013-05-21 22:05:00,
2013-05-21 17:06:00,81.2,68.3,29.69,SW,224,8.8,17.6,65,0.00,,,0.40,587.00,VWS V14.01,2013-05-21 22:06:00,
2013-05-21 17:07:00,81.2,68.8,29.70,SSW,210,12.1,17.6,66,0.00,,,0.40,606.00,VWS V14.01,2013-05-21 22:07:00,
2013-05-21 17:08:00,81.2,67.9,29.69,SSW,197,7.7,17.6,64,0.00,,,0.40,566.00,VWS V14.01,2013-05-21 22:08:00,
2013-05-21 17:09:00,81.2,67.9,29.69,SW,218,3.3,17.6,64,0.00,,,0.40,566.00,VWS V14.01,2013-05-21 22:09:00,
2013-05-21 17:11:00,81.2,67.9,29.69,SSW,199,7.7,9.9,64,0.00,,,0.40,497.00,VWS V14.01,2013-05-21 22:11:00,
2013-05-21 17:12:00,81.2,68.3,29.69,SW,223,4.4,11.0,65,0.00,,,0.40,506.00,VWS V14.01,2013-05-21 22:12:00,
2013-05-21 17:13:00,81.5,68.6,29.69,SSW,197,7.7,14.3,65,0.00,,,0.40,353.00,VWS V14.01,2013-05-21 22:13:00,
2013-05-21 17:14:00,81.5,68.6,29.69,SSW,210,6.6,14.3,65,0.00,,,0.40,353.00,VWS V14.01,2013-05-21 22:14:00,
2013-05-21 17:15:00,81.5,67.7,29.69,SSW,197,9.9,17.6,63,0.00,,,0.40,348.00,VWS V14.01,2013-05-21 22:15:00,
2013-05-21 17:17:00,81.0,67.2,29.70,South,191,12.1,17.6,63,0.00,,,0.40,390.00,VWS V14.01,2013-05-21 22:17:00,
2013-05-21 17:18:00,80.9,67.1,29.70,SW,233,13.2,17.6,63,0.00,,,0.40,390.00,VWS V14.01,2013-05-21 22:18:00,
2013-05-21 17:19:00,80.7,66.9,29.70,SW,218,12.1,17.6,63,0.00,,,0.40,415.00,VWS V14.01,2013-05-21 22:19:00,
2013-05-21 17:21:00,80.6,66.4,29.70,South,181,9.9,9.9,62,0.00,,,0.40,459.00,VWS V14.01,2013-05-21 22:21:00,
2013-05-21 17:23:00,80.6,66.4,29.70,South,191,11.0,16.5,62,0.00,,,0.40,464.00,VWS V14.01,2013-05-21 22:23:00,
2013-05-21 17:24:00,80.7,66.5,29.70,SSW,195,7.7,16.5,62,0.00,,,0.40,508.00,VWS V14.01,2013-05-21 22:24:00,
2013-05-21 17:25:00,80.7,66.9,29.69,SW,233,8.8,16.5,63,0.00,,,0.40,591.00,VWS V14.01,2013-05-21 22:25:00,
2013-05-21 17:27:00,81.0,67.7,29.69,SW,221,15.4,19.8,64,0.00,,,0.40,596.00,VWS V14.01,2013-05-21 22:27:00,
2013-05-21 17:28:00,81.2,67.4,29.69,South,189,7.7,19.8,63,0.00,,,0.40,599.00,VWS V14.01,2013-05-21 22:28:00,
2013-05-21 17:30:00,81.4,67.6,29.69,SSW,205,8.8,19.8,63,0.00,,,0.40,577.00,VWS V14.01,2013-05-21 22:30:00,
2013-05-21 17:33:00,81.4,67.1,29.69,South,179,6.6,17.6,62,0.00,,,0.40,494.00,VWS V14.01,2013-05-21 22:33:00,
2013-05-21 17:34:00,81.4,67.6,29.69,SSW,213,9.9,17.6,63,0.00,,,0.40,462.00,VWS V14.01,2013-05-21 22:34:00,
2013-05-21 17:36:00,81.3,67.5,29.69,South,184,6.6,17.6,63,0.00,,,0.40,446.00,VWS V14.01,2013-05-21 22:36:00,
2013-05-21 17:38:00,81.2,66.9,29.69,SSW,197,7.7,17.6,62,0.00,,,0.40,446.00,VWS V14.01,2013-05-21 22:38:00,
2013-05-21 17:39:00,81.1,67.3,29.69,SW,226,7.7,17.6,63,0.00,,,0.40,446.00,VWS V14.01,2013-05-21 22:39:00,
2013-05-21 17:41:00,80.8,67.0,29.68,South,187,2.2,6.6,63,0.00,,,0.40,81.00,VWS V14.01,2013-05-21 22:41:00,
2013-05-21 17:44:00,80.3,67.5,29.69,South,180,6.6,19.8,65,0.00,,,0.40,438.00,VWS V14.01,2013-05-21 22:44:00,
2013-05-21 17:46:00,80.2,67.4,29.69,SSW,197,7.7,19.8,65,0.00,,,0.40,229.00,VWS V14.01,2013-05-21 22:46:00,
2013-05-21 17:50:00,79.8,67.0,29.69,WSW,247,11.0,11.0,65,0.00,,,0.40,374.00,VWS V14.01,2013-05-21 22:50:00,
2013-05-21 17:51:00,79.8,67.4,29.69,SSW,199,7.7,11.0,66,0.00,,,0.40,374.00,VWS V14.01,2013-05-21 22:51:00,
2013-05-21 17:52:00,79.9,67.1,29.69,SSE,166,7.7,11.0,65,0.00,,,0.40,369.00,VWS V14.01,2013-05-21 22:52:00,
2013-05-21 17:55:00,80.1,67.7,29.68,SSW,213,6.6,12.1,66,0.00,,,0.40,371.00,VWS V14.01,2013-05-21 22:55:00,
2013-05-21 17:56:00,80.1,68.2,29.68,SSW,196,12.1,12.1,67,0.00,,,0.40,371.00,VWS V14.01,2013-05-21 22:56:00,
2013-05-21 17:57:00,80.2,68.3,29.68,West,274,11.0,16.5,67,0.00,,,0.40,371.00,VWS V14.01,2013-05-21 22:57:00,
2013-05-21 18:01:00,80.0,67.2,29.68,West,267,7.7,12.1,65,0.00,,,0.40,148.00,VWS V14.01,2013-05-21 23:01:00,
2013-05-21 18:02:00,79.8,67.0,29.68,SSW,204,8.8,12.1,65,0.00,,,0.40,125.00,VWS V14.01,2013-05-21 23:02:00,
2013-05-21 18:03:00,79.6,67.2,29.68,South,191,6.6,16.5,66,0.00,,,0.40,125.00,VWS V14.01,2013-05-21 23:03:00,
2013-05-21 18:06:00,79.3,67.4,29.68,SSW,196,2.2,16.5,67,0.00,,,0.40,76.00,VWS V14.01,2013-05-21 23:06:00,
2013-05-21 18:07:00,79.2,67.3,29.68,SSE,168,5.5,16.5,67,0.00,,,0.40,285.00,VWS V14.01,2013-05-21 23:07:00,
2013-05-21 18:08:00,79.2,66.9,29.68,WSW,245,2.2,16.5,66,0.00,,,0.40,255.00,VWS V14.01,2013-05-21 23:08:00,
2013-05-21 18:09:00,79.3,67.4,29.68,South,186,6.6,16.5,67,0.00,,,0.40,278.00,VWS V14.01,2013-05-21 23:09:00,
2013-05-21 18:12:00,79.4,67.9,29.68,WSW,237,6.6,11.0,68,0.00,,,0.40,304.00,VWS V14.01,2013-05-21 23:12:00,
2013-05-21 18:13:00,79.6,67.7,29.68,SSW,209,6.6,11.0,67,0.00,,,0.40,306.00,VWS V14.01,2013-05-21 23:13:00,
2013-05-21 18:14:00,79.7,67.8,29.68,SSE,153,9.9,12.1,67,0.00,,,0.40,230.00,VWS V14.01,2013-05-21 23:14:00,
2013-05-21 18:18:00,79.8,67.9,29.68,SW,229,11.0,12.1,67,0.00,,,0.40,72.00,VWS V14.01,2013-05-21 23:18:00,
2013-05-21 18:20:00,79.8,67.9,29.68,South,191,11.0,12.1,67,0.00,,,0.40,151.00,VWS V14.01,2013-05-21 23:20:00,
2013-05-21 18:24:00,79.7,67.3,29.68,SW,219,9.9,13.2,66,0.00,,,0.40,186.00,VWS V14.01,2013-05-21 23:24:00,
2013-05-21 18:25:00,79.6,67.2,29.67,SSW,212,9.9,13.2,66,0.00,,,0.40,220.00,VWS V14.01,2013-05-21 23:25:00,
2013-05-21 18:26:00,79.6,67.2,29.67,WSW,239,12.1,14.3,66,0.00,,,0.40,216.00,VWS V14.01,2013-05-21 23:26:00,
2013-05-21 18:29:00,79.5,67.2,29.67,South,191,7.7,14.3,66,0.00,,,0.40,246.00,VWS V14.01,2013-05-21 23:29:00,
2013-05-21 18:30:00,79.6,67.7,29.67,SSW,202,3.3,5.5,67,0.00,,,0.40,241.00,VWS V14.01,2013-05-21 23:30:00,
2013-05-21 18:31:00,79.6,66.8,29.67,SSW,195,9.9,11.0,65,0.00,,,0.40,239.00,VWS V14.01,2013-05-21 23:31:00,
2013-05-21 18:32:00,79.6,67.2,29.67,SW,222,9.9,11.0,66,0.00,,,0.40,239.00,VWS V14.01,2013-05-21 23:32:00,
2013-05-21 18:33:00,79.6,67.2,29.67,SW,214,5.5,11.0,66,0.00,,,0.40,236.00,VWS V14.01,2013-05-21 23:33:00,
2013-05-21 18:35:00,79.6,66.8,29.67,SSE,160,4.4,11.0,65,0.00,,,0.40,230.00,VWS V14.01,2013-05-21 23:35:00,
2013-05-21 18:37:00,79.6,66.8,29.67,WSW,247,7.7,11.0,65,0.00,,,0.40,223.00,VWS V14.01,2013-05-21 23:37:00,
2013-05-21 18:39:00,79.6,67.2,29.67,SSW,203,5.5,11.0,66,0.00,,,0.40,206.00,VWS V14.01,2013-05-21 23:39:00,
2013-05-21 18:40:00,79.5,67.2,29.67,SSW,194,5.5,13.2,66,0.00,,,0.40,206.00,VWS V14.01,2013-05-21 23:40:00,
2013-05-21 18:42:00,79.4,67.1,29.67,SSW,210,7.7,11.0,66,0.00,,,0.40,199.00,VWS V14.01,2013-05-21 23:42:00,
2013-05-21 18:43:00,79.4,67.1,29.67,South,191,5.5,11.0,66,0.00,,,0.40,197.00,VWS V14.01,2013-05-21 23:43:00,
2013-05-21 18:44:00,79.3,67.0,29.67,South,185,4.4,11.0,66,0.00,,,0.40,192.00,VWS V14.01,2013-05-21 23:44:00,
2013-05-21 18:45:00,79.3,67.4,29.67,SSW,198,8.8,11.0,67,0.00,,,0.40,188.00,VWS V14.01,2013-05-21 23:45:00,
2013-05-21 18:46:00,79.3,67.0,29.67,SW,217,7.7,11.0,66,0.00,,,0.40,155.00,VWS V14.01,2013-05-21 23:46:00,
2013-05-21 18:47:00,79.3,67.4,29.67,South,189,4.4,11.0,67,0.00,,,0.40,134.00,VWS V14.01,2013-05-21 23:47:00,
2013-05-21 18:48:00,79.2,67.7,29.67,South,187,4.4,12.1,68,0.00,,,0.40,70.00,VWS V14.01,2013-05-21 23:48:00,
2013-05-21 18:49:00,79.1,67.6,29.67,SW,220,4.4,12.1,68,0.00,,,0.40,58.00,VWS V14.01,2013-05-21 23:49:00,
2013-05-21 18:50:00,79.1,67.6,29.67,SSW,193,6.6,12.1,68,0.00,,,0.40,56.00,VWS V14.01,2013-05-21 23:50:00,
2013-05-21 18:51:00,79.1,67.6,29.67,SW,218,9.9,9.9,68,0.00,,,0.40,63.00,VWS V14.01,2013-05-21 23:51:00,
2013-05-21 18:52:00,79.0,67.6,29.67,SSW,197,4.4,9.9,68,0.00,,,0.40,62.00,VWS V14.01,2013-05-21 23:52:00,
2013-05-21 18:53:00,78.9,67.4,29.67,South,180,6.6,9.9,68,0.00,,,0.40,53.00,VWS V14.01,2013-05-21 23:53:00,
2013-05-21 18:55:00,78.8,67.8,29.67,SW,215,8.8,9.9,69,0.00,,,0.40,53.00,VWS V14.01,2013-05-21 23:55:00,
2013-05-21 18:57:00,78.7,67.3,29.67,SSW,197,4.4,9.9,68,0.00,,,0.40,56.00,VWS V14.01,2013-05-21 23:57:00,
2013-05-21 18:58:00,78.6,67.2,29.67,SSW,206,5.5,9.9,68,0.00,,,0.40,62.00,VWS V14.01,2013-05-21 23:58:00,
2013-05-21 18:59:00,78.5,67.1,29.67,SSE,157,6.6,9.9,68,0.00,,,0.40,65.00,VWS V14.01,2013-05-21 23:59:00,
2013-05-21 19:00:00,78.5,67.1,29.67,West,268,4.4,9.9,68,0.00,,,0.40,76.00,VWS V14.01,2013-05-22 00:00:00,
2013-05-21 19:02:00,78.4,67.0,29.67,SSW,204,6.6,8.8,68,0.00,,,0.40,63.00,VWS V14.01,2013-05-22 00:02:00,
2013-05-21 19:04:00,78.3,67.3,29.68,SSW,199,5.5,8.8,69,0.00,,,0.40,47.00,VWS V14.01,2013-05-22 00:04:00,
2013-05-21 19:05:00,78.3,67.3,29.68,South,186,2.2,8.8,69,0.00,,,0.40,47.00,VWS V14.01,2013-05-22 00:05:00,
2013-05-21 19:08:00,78.1,67.1,29.68,South,188,3.3,9.9,69,0.00,,,0.40,46.00,VWS V14.01,2013-05-22 00:08:00,
2013-05-21 19:09:00,78.0,67.4,29.68,South,188,7.7,9.9,70,0.00,,,0.40,44.00,VWS V14.01,2013-05-22 00:09:00,
2013-05-21 19:10:00,77.8,67.2,29.68,South,174,6.6,9.9,70,0.00,,,0.40,44.00,VWS V14.01,2013-05-22 00:10:00,
2013-05-21 19:11:00,77.8,67.2,29.68,SW,218,6.6,6.6,70,0.00,,,0.40,42.00,VWS V14.01,2013-05-22 00:11:00,
2013-05-21 19:13:00,77.6,67.5,29.68,SW,216,5.5,8.8,71,0.00,,,0.40,42.00,VWS V14.01,2013-05-22 00:13:00,
2013-05-21 19:14:00,77.6,67.5,29.68,South,182,9.9,9.9,71,0.00,,,0.40,40.00,VWS V14.01,2013-05-22 00:14:00,
2013-05-21 19:15:00,77.6,67.5,29.68,SSW,200,3.3,9.9,71,0.00,,,0.40,40.00,VWS V14.01,2013-05-22 00:15:00,
2013-05-21 19:18:00,77.6,67.1,29.68,SSW,201,7.7,9.9,70,0.00,,,0.40,39.00,VWS V14.01,2013-05-22 00:18:00,
2013-05-21 19:20:00,77.5,66.9,29.68,SW,216,12.1,12.1,70,0.00,,,0.40,37.00,VWS V14.01,2013-05-22 00:20:00,
2013-05-21 19:21:00,77.5,66.9,29.68,SW,221,4.4,7.7,70,0.00,,,0.40,37.00,VWS V14.01,2013-05-22 00:21:00,
2013-05-21 19:25:00,77.3,67.2,29.68,SSW,208,6.6,8.8,71,0.00,,,0.40,33.00,VWS V14.01,2013-05-22 00:25:00,
2013-05-21 19:26:00,77.3,67.2,29.68,South,188,4.4,8.8,71,0.00,,,0.40,32.00,VWS V14.01,2013-05-22 00:26:00,
2013-05-21 19:30:00,77.1,67.0,29.67,SSW,199,6.6,8.8,71,0.00,,,0.40,28.00,VWS V14.01,2013-05-22 00:30:00,
2013-05-21 19:31:00,77.1,67.0,29.67,South,187,3.3,6.6,71,0.00,,,0.40,28.00,VWS V14.01,2013-05-22 00:31:00,
2013-05-21 19:32:00,77.0,66.9,29.67,South,189,5.5,7.7,71,0.00,,,0.40,26.00,VWS V14.01,2013-05-22 00:32:00,
2013-05-21 19:35:00,76.8,67.1,29.68,SSW,205,4.4,11.0,72,0.00,,,0.40,25.00,VWS V14.01,2013-05-22 00:35:00,
2013-05-21 19:36:00,76.8,67.1,29.67,SSW,204,6.6,11.0,72,0.00,,,0.40,23.00,VWS V14.01,2013-05-22 00:36:00,
2013-05-21 19:37:00,76.7,67.0,29.67,South,176,6.6,11.0,72,0.00,,,0.40,23.00,VWS V14.01,2013-05-22 00:37:00,
2013-05-21 19:38:00,76.6,66.9,29.67,SSW,196,4.4,11.0,72,0.00,,,0.40,23.00,VWS V14.01,2013-05-22 00:38:00,
2013-05-21 19:41:00,76.5,66.8,29.67,SW,230,2.2,5.5,72,0.00,,,0.40,21.00,VWS V14.01,2013-05-22 00:41:00,
2013-05-21 19:42:00,76.5,67.2,29.68,SSW,206,4.4,7.7,73,0.00,,,0.40,19.00,VWS V14.01,2013-05-22 00:42:00,
2013-05-21 19:43:00,76.4,66.7,29.68,SSW,197,4.4,7.7,72,0.00,,,0.40,19.00,VWS V14.01,2013-05-22 00:43:00,
2013-05-21 19:44:00,76.4,66.7,29.68,SW,222,2.2,7.7,72,0.00,,,0.40,16.00,VWS V14.01,2013-05-22 00:44:00,
2013-05-21 19:46:00,76.3,67.0,29.68,South,180,4.4,7.7,73,0.00,,,0.40,16.00,VWS V14.01,2013-05-22 00:46:00,
2013-05-21 19:48:00,76.1,66.8,29.68,South,189,3.3,7.7,73,0.00,,,0.40,12.00,VWS V14.01,2013-05-22 00:48:00,
2013-05-21 19:49:00,76.0,66.7,29.68,SSW,213,2.2,7.7,73,0.00,,,0.40,12.00,VWS V14.01,2013-05-22 00:49:00,
2013-05-21 19:51:00,75.8,66.9,29.68,South,187,3.3,5.5,74,0.00,,,0.40,11.00,VWS V14.01,2013-05-22 00:51:00,
2013-05-21 19:52:00,75.8,66.9,29.68,SSW,194,2.2,5.5,74,0.00,,,0.40,11.00,VWS V14.01,2013-05-22 00:52:00,
2013-05-21 19:53:00,75.8,66.9,29.68,SW,224,4.4,7.7,74,0.00,,,0.40,11.00,VWS V14.01,2013-05-22 00:53:00,
2013-05-21 19:54:00,75.7,67.2,29.68,South,177,3.3,7.7,75,0.00,,,0.40,9.00,VWS V14.01,2013-05-22 00:54:00,
2013-05-21 19:57:00,75.5,67.0,29.68,SSW,212,1.1,7.7,75,0.00,,,0.40,7.00,VWS V14.01,2013-05-22 00:57:00,
2013-05-21 19:58:00,75.5,67.0,29.68,SSW,208,5.5,7.7,75,0.00,,,0.40,7.00,VWS V14.01,2013-05-22 00:58:00,
2013-05-21 19:59:00,75.4,66.9,29.68,SSW,212,6.6,7.7,75,0.00,,,0.40,5.00,VWS V14.01,2013-05-22 00:59:00,
2013-05-21 20:03:00,75.3,66.8,29.69,SW,222,5.5,5.5,75,0.00,,,0.40,5.00,VWS V14.01,2013-05-22 01:03:00,
2013-05-21 20:05:00,75.2,67.1,29.69,WSW,241,6.6,7.7,76,0.00,,,0.40,0.00,VWS V14.01,2013-05-22 01:05:00,
2013-05-21 20:08:00,75.1,67.0,29.69,SSW,208,5.5,7.7,76,0.00,,,0.40,0.00,VWS V14.01,2013-05-22 01:08:00,
2013-05-21 20:10:00,75.2,67.1,29.69,SSW,205,5.5,7.7,76,0.00,,,0.40,0.00,VWS V14.01,2013-05-22 01:10:00,
2013-05-21 20:11:00,75.2,67.1,29.69,South,183,3.3,5.5,76,0.00,,,0.40,0.00,VWS V14.01,2013-05-22 01:11:00,
2013-05-21 20:13:00,75.2,67.1,29.69,SW,218,1.1,5.5,76,0.00,,,0.40,0.00,VWS V14.01,2013-05-22 01:13:00,
2013-05-21 20:15:00,75.2,67.1,29.69,SW,222,5.5,5.5,76,0.00,,,0.40,0.00,VWS V14.01,2013-05-22 01:15:00,
2013-05-21 20:16:00,75.1,67.0,29.69,SW,215,3.3,5.5,76,0.00,,,0.40,0.00,VWS V14.01,2013-05-22 01:16:00,
2013-05-21 20:18:00,75.1,67.0,29.69,SW,216,2.2,6.6,76,0.00,,,0.40,0.00,VWS V14.01,2013-05-22 01:18:00,
2013-05-21 20:19:00,75.1,67.0,29.69,SW,218,1.1,6.6,76,0.00,,,0.40,0.00,VWS V14.01,2013-05-22 01:19:00,
2013-05-21 20:20:00,75.1,67.0,29.69,SW,216,5.5,6.6,76,0.00,,,0.40,0.00,VWS V14.01,2013-05-22 01:20:00,
2013-05-21 20:22:00,75.0,66.9,29.69,SSW,193,4.4,5.5,76,0.00,,,0.40,0.00,VWS V14.01,2013-05-22 01:22:00,
2013-05-21 20:24:00,75.0,67.3,29.69,South,183,2.2,7.7,77,0.00,,,0.40,0.00,VWS V14.01,2013-05-22 01:24:00,
2013-05-21 20:25:00,75.0,66.9,29.69,SSW,195,3.3,7.7,76,0.00,,,0.40,0.00,VWS V14.01,2013-05-22 01:25:00,
2013-05-21 20:28:00,74.9,67.2,29.69,SSW,212,2.2,7.7,77,0.00,,,0.40,0.00,VWS V14.01,2013-05-22 01:28:00,
2013-05-21 20:30:00,74.8,67.1,29.70,SW,229,1.1,7.7,77,0.00,,,0.40,0.00,VWS V14.01,2013-05-22 01:30:00,
2013-05-21 20:34:00,74.7,67.4,29.69,SSW,207,2.2,6.6,78,0.00,,,0.40,0.00,VWS V14.01,2013-05-22 01:34:00,
2013-05-21 20:35:00,74.6,67.3,29.69,SSW,195,1.1,6.6,78,0.00,,,0.40,0.00,VWS V14.01,2013-05-22 01:35:00,
2013-05-21 20:36:00,74.6,67.3,29.69,SSW,202,2.2,6.6,78,0.00,,,0.40,0.00,VWS V14.01,2013-05-22 01:36:00,
2013-05-21 20:39:00,74.4,67.1,29.69,SSW,197,2.2,6.6,78,0.00,,,0.40,0.00,VWS V14.01,2013-05-22 01:39:00,
2013-05-21 20:40:00,74.4,67.1,29.70,SSW,197,2.2,6.6,78,0.00,,,0.40,0.00,VWS V14.01,2013-05-22 01:40:00,
2013-05-21 20:41:00,74.3,67.0,29.70,South,191,5.5,5.5,78,0.00,,,0.40,0.00,VWS V14.01,2013-05-22 01:41:00,
2013-05-21 20:42:00,74.3,67.0,29.70,SSW,207,4.4,5.5,78,0.00,,,0.40,0.00,VWS V14.01,2013-05-22 01:42:00,
2013-05-21 20:45:00,74.4,67.1,29.70,SSW,212,5.5,8.8,78,0.00,,,0.40,0.00,VWS V14.01,2013-05-22 01:45:00,
2013-05-21 20:46:00,74.4,67.1,29.70,SSW,193,1.1,8.8,78,0.00,,,0.40,0.00,VWS V14.01,2013-05-22 01:46:00,
2013-05-21 20:47:00,74.4,67.1,29.70,SSW,202,2.2,8.8,78,0.00,,,0.40,0.00,VWS V14.01,2013-05-22 01:47:00,
2013-05-21 20:49:00,74.4,67.1,29.70,South,189,2.2,8.8,78,0.00,,,0.40,0.00,VWS V14.01,2013-05-22 01:49:00,
2013-05-21 20:50:00,74.4,67.1,29.70,South,191,6.6,8.8,78,0.00,,,0.40,0.00,VWS V14.01,2013-05-22 01:50:00,
2013-05-21 20:51:00,74.3,66.6,29.70,SSW,209,1.1,6.6,77,0.00,,,0.40,0.00,VWS V14.01,2013-05-22 01:51:00,
2013-05-21 20:52:00,74.3,66.6,29.70,South,181,4.4,6.6,77,0.00,,,0.40,0.00,VWS V14.01,2013-05-22 01:52:00,
2013-05-21 20:54:00,74.2,66.5,29.70,SSW,201,5.5,8.8,77,0.00,,,0.40,0.00,VWS V14.01,2013-05-22 01:54:00,
2013-05-21 20:55:00,74.2,66.5,29.70,SSW,205,5.5,8.8,77,0.00,,,0.40,0.00,VWS V14.01,2013-05-22 01:55:00,
2013-05-21 20:56:00,74.2,66.5,29.70,SSW,196,3.3,8.8,77,0.00,,,0.40,0.00,VWS V14.01,2013-05-22 01:56:00,
2013-05-21 20:57:00,74.2,66.5,29.70,South,183,1.1,8.8,77,0.00,,,0.40,0.00,VWS V14.01,2013-05-22 01:57:00,
2013-05-21 21:00:00,74.1,66.1,29.70,SSW,200,4.4,8.8,76,0.00,,,0.40,0.00,VWS V14.01,2013-05-22 02:00:00,
2013-05-21 21:01:00,74.1,66.1,29.70,South,182,6.6,6.6,76,0.00,,,0.40,0.00,VWS V14.01,2013-05-22 02:01:00,
2013-05-21 21:02:00,74.1,66.1,29.70,SSW,199,7.7,8.8,76,0.00,,,0.40,0.00,VWS V14.01,2013-05-22 02:02:00,
2013-05-21 21:03:00,74.1,66.1,29.70,SSW,212,6.6,8.8,76,0.00,,,0.40,0.00,VWS V14.01,2013-05-22 02:03:00,
2013-05-21 21:05:00,74.1,66.1,29.70,South,189,5.5,8.8,76,0.00,,,0.40,0.00,VWS V14.01,2013-05-22 02:05:00,
2013-05-21 21:07:00,74.0,66.0,29.70,South,184,5.5,8.8,76,0.00,,,0.40,0.00,VWS V14.01,2013-05-22 02:07:00,
2013-05-21 21:08:00,74.0,66.0,29.70,SSW,210,7.7,8.8,76,0.00,,,0.40,0.00,VWS V14.01,2013-05-22 02:08:00,
2013-05-21 21:09:00,73.9,65.9,29.70,South,189,7.7,8.8,76,0.00,,,0.40,0.00,VWS V14.01,2013-05-22 02:09:00,
2013-05-21 21:11:00,73.8,65.8,29.70,SSW,197,4.4,6.6,76,0.00,,,0.40,0.00,VWS V14.01,2013-05-22 02:11:00,
2013-05-21 21:12:00,73.8,65.8,29.70,South,187,6.6,12.1,76,0.00,,,0.40,0.00,VWS V14.01,2013-05-22 02:12:00,
2013-05-21 21:13:00,73.8,65.8,29.70,South,174,4.4,12.1,76,0.00,,,0.40,0.00,VWS V14.01,2013-05-22 02:13:00,
2013-05-21 21:14:00,73.8,65.8,29.70,South,177,6.6,12.1,76,0.00,,,0.40,0.00,VWS V14.01,2013-05-22 02:14:00,
2013-05-21 21:16:00,73.7,66.1,29.70,South,181,2.2,12.1,77,0.00,,,0.40,0.00,VWS V14.01,2013-05-22 02:16:00,
2013-05-21 21:17:00,73.7,66.1,29.70,South,175,3.3,12.1,77,0.00,,,0.40,0.00,VWS V14.01,2013-05-22 02:17:00,
2013-05-21 21:19:00,73.6,65.9,29.71,South,177,9.9,12.1,77,0.00,,,0.40,0.00,VWS V14.01,2013-05-22 02:19:00,
2013-05-21 21:21:00,73.6,66.3,29.71,SSW,209,5.5,11.0,78,0.00,,,0.40,0.00,VWS V14.01,2013-05-22 02:21:00,
2013-05-21 21:22:00,73.7,66.4,29.71,South,171,3.3,11.0,78,0.00,,,0.40,0.00,VWS V14.01,2013-05-22 02:22:00,
2013-05-21 21:23:00,73.7,66.4,29.71,South,191,9.9,11.0,78,0.00,,,0.40,0.00,VWS V14.01,2013-05-22 02:23:00,
2013-05-21 21:24:00,73.8,66.5,29.71,SSW,209,3.3,12.1,78,0.00,,,0.40,0.00,VWS V14.01,2013-05-22 02:24:00,
2013-05-21 21:27:00,73.8,66.5,29.71,SSW,207,5.5,12.1,78,0.00,,,0.40,0.00,VWS V14.01,2013-05-22 02:27:00,
2013-05-21 21:28:00,73.8,66.5,29.71,SW,233,4.4,12.1,78,0.00,,,0.40,0.00,VWS V14.01,2013-05-22 02:28:00,
2013-05-21 21:29:00,73.8,66.5,29.71,SSW,197,7.7,12.1,78,0.00,,,0.40,0.00,VWS V14.01,2013-05-22 02:29:00,
2013-05-21 21:30:00,73.8,66.5,29.71,South,170,6.6,12.1,78,0.00,,,0.40,0.00,VWS V14.01,2013-05-22 02:30:00,
2013-05-21 21:32:00,73.9,66.6,29.71,SSE,166,6.6,6.6,78,0.00,,,0.40,0.00,VWS V14.01,2013-05-22 02:32:00,
2013-05-21 21:33:00,73.9,66.6,29.71,SSW,199,3.3,7.7,78,0.00,,,0.40,0.00,VWS V14.01,2013-05-22 02:33:00,
2013-05-21 21:35:00,73.9,66.6,29.71,South,177,5.5,7.7,78,0.00,,,0.40,0.00,VWS V14.01,2013-05-22 02:35:00,
2013-05-21 21:38:00,73.7,66.8,29.71,SSW,197,4.4,7.7,79,0.00,,,0.40,0.00,VWS V14.01,2013-05-22 02:38:00,
2013-05-21 21:39:00,73.7,66.8,29.71,South,181,3.3,7.7,79,0.00,,,0.40,0.00,VWS V14.01,2013-05-22 02:39:00,
2013-05-21 21:40:00,73.6,66.7,29.71,South,185,6.6,7.7,79,0.00,,,0.40,0.00,VWS V14.01,2013-05-22 02:40:00,
2013-05-21 21:41:00,73.6,66.7,29.71,SSW,201,4.4,5.5,79,0.00,,,0.40,0.00,VWS V14.01,2013-05-22 02:41:00,
2013-05-21 21:43:00,73.5,66.6,29.71,SSW,212,6.6,9.9,79,0.00,,,0.40,0.00,VWS V14.01,2013-05-22 02:43:00,
2013-05-21 21:44:00,73.5,66.6,29.71,SSW,212,4.4,9.9,79,0.00,,,0.40,0.00,VWS V14.01,2013-05-22 02:44:00,
2013-05-21 21:45:00,73.5,67.0,29.71,South,179,4.4,9.9,80,0.00,,,0.40,0.00,VWS V14.01,2013-05-22 02:45:00,
2013-05-21 21:46:00,73.4,66.9,29.71,SW,214,5.5,9.9,80,0.00,,,0.40,0.00,VWS V14.01,2013-05-22 02:46:00,
2013-05-21 21:49:00,73.3,66.8,29.71,SSE,160,3.3,9.9,80,0.00,,,0.40,0.00,VWS V14.01,2013-05-22 02:49:00,
2013-05-21 21:51:00,73.3,66.8,29.71,South,177,2.2,6.6,80,0.00,,,0.40,0.00,VWS V14.01,2013-05-22 02:51:00,
2013-05-21 21:52:00,73.3,66.8,29.71,SW,221,7.7,7.7,80,0.00,,,0.40,0.00,VWS V14.01,2013-05-22 02:52:00,
2013-05-21 21:53:00,73.3,66.8,29.71,SSE,166,3.3,7.7,80,0.00,,,0.40,0.00,VWS V14.01,2013-05-22 02:53:00,
2013-05-21 21:54:00,73.2,66.7,29.71,SSW,194,5.5,8.8,80,0.00,,,0.40,0.00,VWS V14.01,2013-05-22 02:54:00,
2013-05-21 21:56:00,73.2,66.7,29.71,SSE,156,6.6,9.9,80,0.00,,,0.40,0.00,VWS V14.01,2013-05-22 02:56:00,
2013-05-21 21:57:00,73.2,66.7,29.71,SSW,204,3.3,9.9,80,0.00,,,0.40,0.00,VWS V14.01,2013-05-22 02:57:00,
2013-05-21 21:58:00,73.1,66.9,29.71,SSE,147,5.5,9.9,81,0.00,,,0.40,0.00,VWS V14.01,2013-05-22 02:58:00,
2013-05-21 21:59:00,73.1,66.9,29.71,SSE,168,5.5,9.9,81,0.00,,,0.40,0.00,VWS V14.01,2013-05-22 02:59:00,
2013-05-21 22:00:00,73.0,66.8,29.71,SE,141,2.2,9.9,81,0.00,,,0.40,0.00,VWS V14.01,2013-05-22 03:00:00,
2013-05-21 22:01:00,73.0,66.8,29.71,SSW,194,5.5,7.7,81,0.00,,,0.40,0.00,VWS V14.01,2013-05-22 03:01:00,
2013-05-21 22:03:00,73.0,66.8,29.71,SSW,213,4.4,12.1,81,0.00,,,0.40,0.00,VWS V14.01,2013-05-22 03:03:00,
2013-05-21 22:04:00,73.0,66.8,29.71,South,169,4.4,12.1,81,0.00,,,0.40,0.00,VWS V14.01,2013-05-22 03:04:00,
2013-05-21 22:05:00,73.0,66.8,29.71,SSE,168,7.7,12.1,81,0.00,,,0.40,0.00,VWS V14.01,2013-05-22 03:05:00,
2013-05-21 22:07:00,73.1,66.9,29.71,SW,216,4.4,12.1,81,0.00,,,0.40,0.00,VWS V14.01,2013-05-22 03:07:00,
2013-05-21 22:09:00,73.1,66.6,29.71,South,185,6.6,12.1,80,0.00,,,0.40,0.00,VWS V14.01,2013-05-22 03:09:00,
2013-05-21 22:10:00,73.1,66.6,29.71,SSW,193,7.7,12.1,80,0.00,,,0.40,0.00,VWS V14.01,2013-05-22 03:10:00,
2013-05-21 22:11:00,73.1,66.6,29.71,South,177,4.4,7.7,80,0.00,,,0.40,0.00,VWS V14.01,2013-05-22 03:11:00,
2013-05-21 22:13:00,73.1,66.6,29.71,SSW,204,6.6,8.8,80,0.00,,,0.40,0.00,VWS V14.01,2013-05-22 03:13:00,
2013-05-21 22:14:00,73.1,66.6,29.70,SW,223,5.5,8.8,80,0.00,,,0.40,0.00,VWS V14.01,2013-05-22 03:14:00,
2013-05-21 22:16:00,73.1,66.6,29.70,South,174,4.4,12.1,80,0.00,,,0.40,0.00,VWS V14.01,2013-05-22 03:16:00,
2013-05-21 22:18:00,73.0,66.5,29.70,SE,145,4.4,12.1,80,0.00,,,0.40,0.00,VWS V14.01,2013-05-22 03:18:00,
2013-05-21 22:19:00,73.0,66.5,29.70,South,189,5.5,12.1,80,0.00,,,0.40,0.00,VWS V14.01,2013-05-22 03:19:00,
2013-05-21 22:22:00,73.0,66.5,29.70,SE,133,5.5,7.7,80,0.00,,,0.40,0.00,VWS V14.01,2013-05-22 03:22:00,
2013-05-21 22:24:00,72.9,66.4,29.70,South,190,6.6,7.7,80,0.00,,,0.40,0.00,VWS V14.01,2013-05-22 03:24:00,
2013-05-21 22:26:00,72.9,66.4,29.70,SSW,199,5.5,7.7,80,0.00,,,0.40,0.00,VWS V14.01,2013-05-22 03:26:00,
2013-05-21 22:27:00,72.9,66.4,29.70,SSW,208,2.2,7.7,80,0.00,,,0.40,0.00,VWS V14.01,2013-05-22 03:27:00,
2013-05-21 22:28:00,72.8,66.3,29.70,SW,224,6.6,12.1,80,0.00,,,0.40,0.00,VWS V14.01,2013-05-22 03:28:00,
2013-05-21 22:29:00,72.8,66.3,29.70,SSW,204,5.5,12.1,80,0.00,,,0.40,0.00,VWS V14.01,2013-05-22 03:29:00,
2013-05-21 22:32:00,72.8,66.3,29.70,SW,228,4.4,8.8,80,0.00,,,0.40,0.00,VWS V14.01,2013-05-22 03:32:00,
2013-05-21 22:34:00,72.8,66.3,29.70,South,185,6.6,8.8,80,0.00,,,0.40,0.00,VWS V14.01,2013-05-22 03:34:00,
2013-05-21 22:35:00,72.8,66.3,29.70,South,185,3.3,9.9,80,0.00,,,0.40,0.00,VWS V14.01,2013-05-22 03:35:00,
2013-05-21 22:37:00,72.8,66.3,29.70,SSW,195,6.6,9.9,80,0.00,,,0.40,0.00,VWS V14.01,2013-05-22 03:37:00,
2013-05-21 22:38:00,72.7,66.2,29.70,South,191,5.5,9.9,80,0.00,,,0.40,0.00,VWS V14.01,2013-05-22 03:38:00,
2013-05-21 22:39:00,72.7,66.2,29.70,SSW,195,5.5,9.9,80,0.00,,,0.40,0.00,VWS V14.01,2013-05-22 03:39:00,
2013-05-21 22:41:00,72.6,66.1,29.70,SW,224,3.3,7.7,80,0.00,,,0.40,0.00,VWS V14.01,2013-05-22 03:41:00,
2013-05-21 22:43:00,72.6,66.1,29.70,SW,214,6.6,7.7,80,0.00,,,0.40,0.00,VWS V14.01,2013-05-22 03:43:00,
2013-05-21 22:44:00,72.6,66.1,29.70,SSW,199,5.5,7.7,80,0.00,,,0.40,0.00,VWS V14.01,2013-05-22 03:44:00,
2013-05-21 22:47:00,72.5,66.3,29.70,South,191,7.7,7.7,81,0.00,,,0.40,0.00,VWS V14.01,2013-05-22 03:47:00,
2013-05-21 22:49:00,72.5,66.3,29.70,South,189,4.4,8.8,81,0.00,,,0.40,0.00,VWS V14.01,2013-05-22 03:49:00,
2013-05-21 22:50:00,72.4,66.2,29.70,SSW,199,4.4,8.8,81,0.00,,,0.40,0.00,VWS V14.01,2013-05-22 03:50:00,
2013-05-21 22:53:00,72.4,66.2,29.70,South,184,3.3,7.7,81,0.00,,,0.40,0.00,VWS V14.01,2013-05-22 03:53:00,
2013-05-21 22:54:00,72.3,66.2,29.69,South,183,3.3,7.7,81,0.00,,,0.40,0.00,VWS V14.01,2013-05-22 03:54:00,
2013-05-21 22:55:00,72.3,66.2,29.69,SSE,162,4.4,7.7,81,0.00,,,0.40,0.00,VWS V14.01,2013-05-22 03:55:00,
2013-05-21 22:56:00,72.2,66.1,29.70,SSW,194,6.6,9.9,81,0.00,,,0.40,0.00,VWS V14.01,2013-05-22 03:56:00,
2013-05-21 22:57:00,72.2,66.1,29.70,South,189,4.4,9.9,81,0.00,,,0.40,0.00,VWS V14.01,2013-05-22 03:57:00,
2013-05-21 22:58:00,72.1,65.9,29.70,SSE,161,5.5,9.9,81,0.00,,,0.40,0.00,VWS V14.01,2013-05-22 03:58:00,
2013-05-21 23:00:00,72.1,65.9,29.70,South,169,4.4,9.9,81,0.00,,,0.40,0.00,VWS V14.01,2013-05-22 04:00:00,
2013-05-21 23:01:00,72.1,65.9,29.70,South,187,6.6,7.7,81,0.00,,,0.40,0.00,VWS V14.01,2013-05-22 04:01:00,
2013-05-21 23:02:00,72.0,66.2,29.69,SSW,199,5.5,7.7,82,0.00,,,0.40,0.00,VWS V14.01,2013-05-22 04:02:00,
2013-05-21 23:06:00,71.9,66.1,29.69,SSE,166,3.3,7.7,82,0.00,,,0.40,0.00,VWS V14.01,2013-05-22 04:06:00,
2013-05-21 23:07:00,71.9,66.1,29.69,SSW,197,6.6,7.7,82,0.00,,,0.40,0.00,VWS V14.01,2013-05-22 04:07:00,
2013-05-21 23:08:00,71.8,66.0,29.70,South,184,5.5,7.7,82,0.00,,,0.40,0.00,VWS V14.01,2013-05-22 04:08:00,
2013-05-21 23:11:00,71.8,66.0,29.70,South,173,6.6,7.7,82,0.00,,,0.40,0.00,VWS V14.01,2013-05-22 04:11:00,
2013-05-21 23:12:00,71.7,65.9,29.70,South,177,5.5,7.7,82,0.00,,,0.40,0.00,VWS V14.01,2013-05-22 04:12:00,
2013-05-21 23:13:00,71.7,65.9,29.70,SSW,199,3.3,7.7,82,0.00,,,0.40,0.00,VWS V14.01,2013-05-22 04:13:00,
2013-05-21 23:14:00,71.8,66.0,29.70,South,173,6.6,7.7,82,0.00,,,0.40,0.00,VWS V14.01,2013-05-22 04:14:00,
2013-05-21 23:17:00,71.8,66.0,29.69,South,191,2.2,7.7,82,0.00,,,0.40,0.00,VWS V14.01,2013-05-22 04:17:00,
2013-05-21 23:19:00,71.8,66.0,29.70,SSW,199,7.7,9.9,82,0.00,,,0.40,0.00,VWS V14.01,2013-05-22 04:19:00,
2013-05-21 23:20:00,71.8,66.0,29.69,South,179,2.2,9.9,82,0.00,,,0.40,0.00,VWS V14.01,2013-05-22 04:20:00,
2013-05-21 23:22:00,71.9,66.1,29.69,SSE,168,8.8,8.8,82,0.00,,,0.40,0.00,VWS V14.01,2013-05-22 04:22:00,
2013-05-21 23:23:00,71.9,66.1,29.69,South,174,6.6,11.0,82,0.00,,,0.40,0.00,VWS V14.01,2013-05-22 04:23:00,
2013-05-21 23:24:00,71.9,66.1,29.69,South,185,6.6,11.0,82,0.00,,,0.40,0.00,VWS V14.01,2013-05-22 04:24:00,
2013-05-21 23:25:00,71.9,66.1,29.69,South,182,11.0,11.0,82,0.00,,,0.40,0.00,VWS V14.01,2013-05-22 04:25:00,
2013-05-21 23:26:00,71.9,66.1,29.69,SSW,204,6.6,11.0,82,0.00,,,0.40,0.00,VWS V14.01,2013-05-22 04:26:00,
2013-05-21 23:29:00,72.0,66.2,29.69,South,173,6.6,11.0,82,0.00,,,0.40,0.00,VWS V14.01,2013-05-22 04:29:00,
2013-05-21 23:30:00,72.0,66.2,29.69,SSW,196,6.6,13.2,82,0.00,,,0.40,0.00,VWS V14.01,2013-05-22 04:30:00,
2013-05-21 23:33:00,72.0,66.2,29.69,SSE,159,7.7,8.8,82,0.00,,,0.40,0.00,VWS V14.01,2013-05-22 04:33:00,
2013-05-21 23:34:00,72.0,66.2,29.69,SSE,150,4.4,8.8,82,0.00,,,0.40,0.00,VWS V14.01,2013-05-22 04:34:00,
2013-05-21 23:35:00,72.0,66.2,29.69,SSE,160,5.5,8.8,82,0.00,,,0.40,0.00,VWS V14.01,2013-05-22 04:35:00,
2013-05-21 23:39:00,71.8,66.0,29.69,SW,228,2.2,9.9,82,0.00,,,0.40,0.00,VWS V14.01,2013-05-22 04:39:00,
2013-05-21 23:40:00,71.7,65.9,29.69,SSE,166,3.3,12.1,82,0.00,,,0.40,0.00,VWS V14.01,2013-05-22 04:40:00,
2013-05-21 23:41:00,71.7,65.9,29.69,South,189,6.6,12.1,82,0.00,,,0.40,0.00,VWS V14.01,2013-05-22 04:41:00,
2013-05-21 23:44:00,71.6,66.2,29.69,South,187,3.3,12.1,83,0.00,,,0.40,0.00,VWS V14.01,2013-05-22 04:44:00,
2013-05-21 23:45:00,71.5,66.1,29.69,SSW,195,2.2,12.1,83,0.00,,,0.40,0.00,VWS V14.01,2013-05-22 04:45:00,
2013-05-21 23:46:00,71.5,66.1,29.69,SSE,162,4.4,12.1,83,0.00,,,0.40,0.00,VWS V14.01,2013-05-22 04:46:00,
2013-05-21 23:47:00,71.4,66.0,29.69,SSE,167,6.6,12.1,83,0.00,,,0.40,0.00,VWS V14.01,2013-05-22 04:47:00,
2013-05-21 23:49:00,71.4,66.0,29.69,SSE,160,6.6,12.1,83,0.00,,,0.40,0.00,VWS V14.01,2013-05-22 04:49:00,
2013-05-21 23:50:00,71.4,66.0,29.69,SE,131,5.5,12.1,83,0.00,,,0.40,0.00,VWS V14.01,2013-05-22 04:50:00,
2013-05-21 23:51:00,71.3,65.9,29.69,SSE,150,4.4,6.6,83,0.00,,,0.40,0.00,VWS V14.01,2013-05-22 04:51:00,
2013-05-21 23:54:00,71.3,65.9,29.69,SSE,159,6.6,8.8,83,0.00,,,0.40,0.00,VWS V14.01,2013-05-22 04:54:00,
2013-05-21 23:55:00,71.3,65.9,29.69,South,177,4.4,12.1,83,0.00,,,0.40,0.00,VWS V14.01,2013-05-22 04:55:00,
2013-05-21 23:56:00,71.3,65.9,29.69,South,183,11.0,12.1,83,0.00,,,0.40,0.00,VWS V14.01,2013-05-22 04:56:00,
2013-05-21 23:59:00,71.2,65.8,29.70,South,183,2.2,12.1,83,0.00,,,0.40,0.00,VWS V14.01,2013-05-22 04:59:00,